Darstellungsparameter: Aktuell verwendete Einstellungen:
Skalierung der Graphiken ... ?
xyx+y,   Skalierungsfaktor:      Skalierung: Modus: x, Faktor: 1
Darstellungszeitraum ... ?
Vom - - bis: - -   Zeitraum: 23.03.2020 - 29.03.2020
Min/Max/Avg-Anzeige ... ?
Zeige MMA aktuell
Zeige MMA Monat
Zeige MMA alles
Zeige --A aktuell
Zeige --A Monat
Zeige --A alles
Keine MMA-Anzeige
MMA:
Keine MMA-Graphiken
MMA-Basis: 23.03.2020 - 29.03.2020
Quicknavigation für Darstellung... ?
Tage:      1T, 2T, 3T, 5T -1T -2T -3T -5T +1T +2T +3T +5T
Wochen: 1W, 2W, 3W -1W -2W -3W +1W +2W +3W
Monate: 1M, 3M, 6M -1M -3M -6M +1M +3M +6M
Jahre:    1J, 3J, 5J, 10J -1J -3J -5J -10J +1J +3J +5J +10J
Nutze für die Darstellung ... ?
Originaldaten oder Mittelwerte auf ...
Stundenbasis Tagesbasis Wochenbasis
Monatsbasis Jahresbasis      Datenbasis: Original-Daten
Darstellen als:
Statistik (Auto) Statistik J:M      Darstellung:
Zur Graphik,    zurück zur Übersicht aller Sensoren.
 
Tabellarische Datenbersicht: ?
 
Sensor: Nr:Datum:Temp:Feuchte:Taupunkt:
Aussen-T/F 1 23-03-2020 00:00:00 1 C 71 % -3.65 C
2 23-03-2020 00:05:00 0.9 C 71 % -3.75 C
3 23-03-2020 00:10:00 0.8 C 71 % -3.85 C
4 23-03-2020 00:15:00 0.8 C 72 % -3.66 C
5 23-03-2020 00:20:00 0.7 C 72 % -3.76 C
6 23-03-2020 00:25:00 0.5 C 73 % -3.76 C
7 23-03-2020 00:30:00 0.3 C 74 % -3.78 C
8 23-03-2020 00:35:00 0.2 C 74 % -3.87 C
9 23-03-2020 00:40:00 0.1 C 75 % -3.79 C
10 23-03-2020 00:45:00 0 C 75 % -3.89 C
11 23-03-2020 00:50:00 -0.1 C 76 % -3.81 C
12 23-03-2020 00:55:00 -0.1 C 76 % -3.81 C
13 23-03-2020 01:00:00 -0.2 C 76 % -3.91 C
14 23-03-2020 01:05:00 -0.2 C 75 % -4.09 C
15 23-03-2020 01:10:00 -0.2 C 75 % -4.09 C
16 23-03-2020 01:15:00 -0.2 C 75 % -4.09 C
17 23-03-2020 01:20:00 -0.3 C 76 % -4.01 C
18 23-03-2020 01:25:00 -0.3 C 75 % -4.18 C
19 23-03-2020 01:30:00 -0.3 C 76 % -4.01 C
20 23-03-2020 01:35:00 -0.3 C 76 % -4.01 C
21 23-03-2020 01:40:00 -0.4 C 76 % -4.1 C
22 23-03-2020 01:45:00 -0.4 C 76 % -4.1 C
23 23-03-2020 01:50:00 -0.5 C 75 % -4.38 C
24 23-03-2020 01:55:00 -0.5 C 76 % -4.2 C
25 23-03-2020 02:00:00 -0.6 C 76 % -4.3 C
Sensor: Nr:Datum:Temp:Feuchte:Taupunkt:
Aussen-T/F 26 23-03-2020 02:05:00 -0.6 C 76 % -4.3 C
27 23-03-2020 02:10:00 -0.6 C 76 % -4.3 C
28 23-03-2020 02:15:00 -0.7 C 76 % -4.4 C
29 23-03-2020 02:20:00 -0.7 C 75 % -4.57 C
30 23-03-2020 02:25:00 -0.7 C 75 % -4.57 C
31 23-03-2020 02:30:00 -0.7 C 75 % -4.57 C
32 23-03-2020 02:35:00 -0.7 C 74 % -4.75 C
33 23-03-2020 02:40:00 -0.7 C 76 % -4.4 C
34 23-03-2020 02:45:00 -0.7 C 76 % -4.4 C
35 23-03-2020 02:50:00 -0.8 C 75 % -4.67 C
36 23-03-2020 02:55:00 -0.8 C 75 % -4.67 C
37 23-03-2020 03:00:00 -0.9 C 74 % -4.94 C
38 23-03-2020 03:05:00 -0.9 C 75 % -4.76 C
39 23-03-2020 03:10:00 -0.9 C 75 % -4.76 C
40 23-03-2020 03:15:00 -0.9 C 76 % -4.59 C
41 23-03-2020 03:20:00 -1 C 76 % -4.69 C
42 23-03-2020 03:25:00 -1 C 76 % -4.69 C
43 23-03-2020 03:30:00 -1.1 C 75 % -4.96 C
44 23-03-2020 03:35:00 -1.1 C 75 % -4.96 C
45 23-03-2020 03:40:00 -1.1 C 75 % -4.96 C
46 23-03-2020 03:45:00 -1.1 C 76 % -4.78 C
47 23-03-2020 03:50:00 -1.2 C 76 % -4.88 C
48 23-03-2020 03:55:00 -1.3 C 76 % -4.98 C
49 23-03-2020 04:00:00 -1.3 C 75 % -5.15 C
50 23-03-2020 04:05:00 -1.3 C 76 % -4.98 C
Sensor: Nr:Datum:Temp:Feuchte:Taupunkt:
Aussen-T/F 51 23-03-2020 04:10:00 -1.3 C 76 % -4.98 C
52 23-03-2020 04:15:00 -1.4 C 76 % -5.07 C
53 23-03-2020 04:20:00 -1.4 C 76 % -5.07 C
54 23-03-2020 04:25:00 -1.5 C 76 % -5.17 C
55 23-03-2020 04:30:00 -1.5 C 76 % -5.17 C
56 23-03-2020 04:35:00 -1.6 C 77 % -5.1 C
57 23-03-2020 04:40:00 -1.7 C 76 % -5.36 C
58 23-03-2020 04:45:00 -1.7 C 77 % -5.19 C
59 23-03-2020 04:50:00 -1.7 C 78 % -5.02 C
60 23-03-2020 04:55:00 -1.8 C 78 % -5.12 C
61 23-03-2020 05:00:00 -1.8 C 77 % -5.29 C
62 23-03-2020 05:05:00 -1.8 C 78 % -5.12 C
63 23-03-2020 05:10:00 -1.9 C 78 % -5.22 C
64 23-03-2020 05:15:00 -1.9 C 78 % -5.22 C
65 23-03-2020 05:20:00 -2 C 78 % -5.31 C
66 23-03-2020 05:25:00 -2 C 78 % -5.31 C
67 23-03-2020 05:30:00 -2.1 C 78 % -5.41 C
68 23-03-2020 05:35:00 -2.1 C 78 % -5.41 C
69 23-03-2020 05:40:00 -2.1 C 78 % -5.41 C
70 23-03-2020 05:45:00 -2.1 C 78 % -5.41 C
71 23-03-2020 05:50:00 -2.1 C 79 % -5.24 C
72 23-03-2020 05:55:00 -2.1 C 79 % -5.24 C
73 23-03-2020 06:00:00 -2.2 C 79 % -5.34 C
74 23-03-2020 06:05:00 -2.2 C 79 % -5.34 C
75 23-03-2020 06:10:00 -2.3 C 79 % -5.44 C
Sensor: Nr:Datum:Temp:Feuchte:Taupunkt:
Aussen-T/F 76 23-03-2020 06:15:00 -2.3 C 79 % -5.44 C
77 23-03-2020 06:20:00 -2.3 C 79 % -5.44 C
78 23-03-2020 06:25:00 -2.3 C 79 % -5.44 C
79 23-03-2020 06:30:00 -2.4 C 79 % -5.54 C
80 23-03-2020 06:35:00 -2.4 C 79 % -5.54 C
81 23-03-2020 06:40:00 -2.4 C 79 % -5.54 C
82 23-03-2020 06:45:00 -2.4 C 79 % -5.54 C
83 23-03-2020 06:50:00 -2.4 C 79 % -5.54 C
84 23-03-2020 06:55:00 -2.4 C 80 % -5.37 C
85 23-03-2020 07:00:00 -2.3 C 80 % -5.27 C
86 23-03-2020 07:05:00 -2.3 C 80 % -5.27 C
87 23-03-2020 07:10:00 -2.3 C 80 % -5.27 C
88 23-03-2020 07:15:00 -2.3 C 80 % -5.27 C
89 23-03-2020 07:20:00 -2.2 C 80 % -5.18 C
90 23-03-2020 07:25:00 -2.2 C 79 % -5.34 C
91 23-03-2020 07:30:00 -2.1 C 79 % -5.24 C
92 23-03-2020 07:35:00 -2.1 C 79 % -5.24 C
93 23-03-2020 07:40:00 -2 C 79 % -5.15 C
94 23-03-2020 07:45:00 -1.9 C 78 % -5.22 C
95 23-03-2020 07:50:00 -1.7 C 75 % -5.54 C
96 23-03-2020 07:55:00 -1.3 C 74 % -5.33 C
97 23-03-2020 08:00:00 -1.2 C 75 % -5.05 C
98 23-03-2020 08:05:00 -1.1 C 75 % -4.96 C
99 23-03-2020 08:10:00 -1.1 C 72 % -5.5 C
100 23-03-2020 08:15:00 -0.9 C 71 % -5.49 C
Sensor: Nr:Datum:Temp:Feuchte:Taupunkt:
Aussen-T/F 101 23-03-2020 08:20:00 -0.7 C 67 % -6.05 C
102 23-03-2020 08:25:00 -0.4 C 68 % -5.57 C
103 23-03-2020 08:30:00 -0.2 C 66 % -5.77 C
104 23-03-2020 08:35:00 0 C 62 % -6.39 C
105 23-03-2020 08:40:00 0.3 C 61 % -6.32 C
106 23-03-2020 08:45:00 0.4 C 60 % -6.44 C
107 23-03-2020 08:50:00 0.6 C 59 % -6.47 C
108 23-03-2020 08:55:00 0.7 C 57 % -6.82 C
109 23-03-2020 09:00:00 0.9 C 58 % -6.41 C
110 23-03-2020 09:05:00 1 C 56 % -6.77 C
111 23-03-2020 09:10:00 1.2 C 56 % -6.59 C
112 23-03-2020 09:15:00 1.2 C 56 % -6.59 C
113 23-03-2020 09:20:00 1.3 C 55 % -6.73 C
114 23-03-2020 09:25:00 1.4 C 57 % -6.17 C
115 23-03-2020 09:30:00 1.7 C 55 % -6.35 C
116 23-03-2020 09:35:00 1.8 C 54 % -6.5 C
117 23-03-2020 09:40:00 1.9 C 52 % -6.89 C
118 23-03-2020 09:45:00 2.2 C 50 % -7.12 C
119 23-03-2020 09:50:00 2.4 C 50 % -6.94 C
120 23-03-2020 09:55:00 2.6 C 51 % -6.5 C
121 23-03-2020 10:00:00 2.7 C 51 % -6.41 C
122 23-03-2020 10:05:00 3 C 49 % -6.65 C
123 23-03-2020 10:10:00 3.1 C 49 % -6.56 C
124 23-03-2020 10:15:00 3.3 C 46 % -7.19 C
125 23-03-2020 10:20:00 3.4 C 45 % -7.38 C
Sensor: Nr:Datum:Temp:Feuchte:Taupunkt:
Aussen-T/F 126 23-03-2020 10:25:00 3.7 C 48 % -6.27 C
127 23-03-2020 10:30:00 3.9 C 43 % -7.51 C
128 23-03-2020 10:35:00 4.1 C 42 % -7.64 C
129 23-03-2020 10:40:00 4.3 C 41 % -7.77 C
130 23-03-2020 10:45:00 4.6 C 39 % -8.14 C
131 23-03-2020 10:50:00 4.8 C 38 % -8.29 C
132 23-03-2020 10:55:00 5 C 40 % -7.45 C
133 23-03-2020 11:00:00 5.2 C 40 % -7.27 C
134 23-03-2020 11:05:00 5.4 C 37 % -8.1 C
135 23-03-2020 11:10:00 5.6 C 36 % -8.27 C
136 23-03-2020 11:15:00 5.7 C 35 % -8.54 C
137 23-03-2020 11:20:00 5.8 C 35 % -8.45 C
138 23-03-2020 11:25:00 5.9 C 34 % -8.73 C
139 23-03-2020 11:30:00 6.1 C 33 % -8.94 C
140 23-03-2020 11:35:00 6.3 C 32 % -9.15 C
141 23-03-2020 11:40:00 6.4 C 33 % -8.67 C
142 23-03-2020 11:45:00 6.4 C 33 % -8.67 C
143 23-03-2020 11:50:00 6.6 C 33 % -8.5 C
144 23-03-2020 11:55:00 6.8 C 32 % -8.71 C
145 23-03-2020 12:00:00 6.9 C 32 % -8.63 C
146 23-03-2020 12:05:00 6.9 C 29 % -9.88 C
147 23-03-2020 12:10:00 7 C 29 % -9.79 C
148 23-03-2020 12:15:00 7.2 C 28 % -10.06 C
149 23-03-2020 12:20:00 7.3 C 30 % -9.1 C
150 23-03-2020 12:25:00 7.5 C 28 % -9.8 C
Sensor: Nr:Datum:Temp:Feuchte:Taupunkt:
Aussen-T/F 151 23-03-2020 12:30:00 7.7 C 30 % -8.75 C
152 23-03-2020 12:35:00 7.8 C 28 % -9.54 C
153 23-03-2020 12:40:00 7.9 C 26 % -10.39 C
154 23-03-2020 12:45:00 8 C 26 % -10.3 C
155 23-03-2020 12:50:00 8 C 26 % -10.3 C
156 23-03-2020 12:55:00 8 C 27 % -9.83 C
157 23-03-2020 13:00:00 8.1 C 27 % -9.74 C
158 23-03-2020 13:05:00 8.2 C 28 % -9.2 C
159 23-03-2020 13:10:00 8.1 C 26 % -10.22 C
160 23-03-2020 13:15:00 8.3 C 27 % -9.57 C
161 23-03-2020 13:20:00 8.3 C 27 % -9.57 C
162 23-03-2020 13:25:00 8.4 C 25 % -10.45 C
163 23-03-2020 13:30:00 8.6 C 26 % -9.79 C
164 23-03-2020 13:35:00 8.7 C 26 % -9.7 C
165 23-03-2020 13:40:00 8.8 C 25 % -10.11 C
166 23-03-2020 13:45:00 8.8 C 24 % -10.63 C
167 23-03-2020 13:50:00 8.8 C 25 % -10.11 C
168 23-03-2020 13:55:00 8.9 C 23 % -11.07 C
169 23-03-2020 14:00:00 8.7 C 23 % -11.24 C
170 23-03-2020 14:05:00 8.7 C 23 % -11.24 C
171 23-03-2020 14:10:00 8.7 C 25 % -10.2 C
172 23-03-2020 14:15:00 8.8 C 24 % -10.63 C
173 23-03-2020 14:20:00 8.8 C 26 % -9.62 C
174 23-03-2020 14:25:00 9 C 24 % -10.46 C
175 23-03-2020 14:30:00 9.1 C 24 % -10.37 C
Sensor: Nr:Datum:Temp:Feuchte:Taupunkt:
Aussen-T/F 176 23-03-2020 14:35:00 9 C 24 % -10.46 C
177 23-03-2020 14:40:00 9 C 26 % -9.45 C
178 23-03-2020 14:45:00 9 C 25 % -9.94 C
179 23-03-2020 14:50:00 9 C 25 % -9.94 C
180 23-03-2020 14:55:00 9 C 24 % -10.46 C
181 23-03-2020 15:00:00 9 C 25 % -9.94 C
182 23-03-2020 15:05:00 9.1 C 25 % -9.86 C
183 23-03-2020 15:10:00 9.2 C 25 % -9.77 C
184 23-03-2020 15:15:00 9.3 C 26 % -9.19 C
185 23-03-2020 15:20:00 9.3 C 24 % -10.2 C
186 23-03-2020 15:25:00 9.4 C 26 % -9.11 C
187 23-03-2020 15:30:00 9.5 C 24 % -10.03 C
188 23-03-2020 15:35:00 9.6 C 24 % -9.95 C
189 23-03-2020 15:40:00 9.7 C 25 % -9.35 C
190 23-03-2020 15:45:00 9.7 C 25 % -9.35 C
191 23-03-2020 15:50:00 9.6 C 23 % -10.48 C
192 23-03-2020 15:55:00 9.7 C 25 % -9.35 C
193 23-03-2020 16:00:00 9.8 C 24 % -9.78 C
194 23-03-2020 16:05:00 9.8 C 23 % -10.31 C
195 23-03-2020 16:10:00 10 C 25 % -9.09 C
196 23-03-2020 16:15:00 10.1 C 26 % -8.51 C
197 23-03-2020 16:20:00 10.3 C 23 % -9.89 C
198 23-03-2020 16:25:00 10.4 C 24 % -9.27 C
199 23-03-2020 16:30:00 10.4 C 23 % -9.81 C
200 23-03-2020 16:35:00 10.4 C 23 % -9.81 C
Sensor: Nr:Datum:Temp:Feuchte:Taupunkt:
Aussen-T/F 201 23-03-2020 16:40:00 10.4 C 25 % -8.75 C
202 23-03-2020 16:45:00 10.5 C 24 % -9.19 C
203 23-03-2020 16:50:00 10.4 C 24 % -9.27 C
204 23-03-2020 16:55:00 10.3 C 26 % -8.34 C
205 23-03-2020 17:00:00 10.4 C 24 % -9.27 C
206 23-03-2020 17:05:00 10.4 C 26 % -8.25 C
207 23-03-2020 17:10:00 10.3 C 26 % -8.34 C
208 23-03-2020 17:15:00 10.5 C 26 % -8.16 C
209 23-03-2020 17:20:00 10.4 C 26 % -8.25 C
210 23-03-2020 17:25:00 10.4 C 26 % -8.25 C
211 23-03-2020 17:30:00 10.3 C 27 % -7.85 C
212 23-03-2020 17:35:00 10.2 C 25 % -8.92 C
213 23-03-2020 17:40:00 10.2 C 27 % -7.94 C
214 23-03-2020 17:45:00 10.1 C 26 % -8.51 C
215 23-03-2020 17:50:00 10 C 26 % -8.59 C
216 23-03-2020 17:55:00 9.9 C 26 % -8.68 C
217 23-03-2020 18:00:00 9.9 C 27 % -8.19 C
218 23-03-2020 18:05:00 9.8 C 25 % -9.26 C
219 23-03-2020 18:10:00 9.8 C 26 % -8.76 C
220 23-03-2020 18:15:00 9.6 C 27 % -8.45 C
221 23-03-2020 18:20:00 9.4 C 28 % -8.16 C
222 23-03-2020 18:25:00 9.1 C 28 % -8.42 C
223 23-03-2020 18:30:00 8.8 C 28 % -8.68 C
224 23-03-2020 18:35:00 8.4 C 35 % -6.15 C
225 23-03-2020 18:40:00 7.9 C 40 % -4.84 C
Sensor: Nr:Datum:Temp:Feuchte:Taupunkt:
Aussen-T/F 226 23-03-2020 18:45:00 7.2 C 42 % -4.83 C
227 23-03-2020 18:50:00 6.6 C 45 % -4.47 C
228 23-03-2020 18:55:00 5.9 C 47 % -4.53 C
229 23-03-2020 19:00:00 5.3 C 48 % -4.8 C
230 23-03-2020 19:05:00 4.9 C 51 % -4.37 C
231 23-03-2020 19:10:00 4.6 C 51 % -4.65 C
232 23-03-2020 19:15:00 4.2 C 52 % -4.76 C
233 23-03-2020 19:20:00 3.9 C 54 % -4.54 C
234 23-03-2020 19:25:00 3.7 C 55 % -4.49 C
235 23-03-2020 19:30:00 3.5 C 56 % -4.43 C
236 23-03-2020 19:35:00 3.3 C 57 % -4.39 C
237 23-03-2020 19:40:00 3.2 C 57 % -4.48 C
238 23-03-2020 19:45:00 3 C 58 % -4.44 C
239 23-03-2020 19:50:00 2.9 C 59 % -4.31 C
240 23-03-2020 19:55:00 2.8 C 60 % -4.18 C
241 23-03-2020 20:00:00 2.6 C 61 % -4.15 C
242 23-03-2020 20:05:00 2.5 C 60 % -4.46 C
243 23-03-2020 20:10:00 2.3 C 62 % -4.21 C
244 23-03-2020 20:15:00 2.2 C 62 % -4.31 C
245 23-03-2020 20:20:00 2.2 C 62 % -4.31 C
246 23-03-2020 20:25:00 2.1 C 63 % -4.19 C
247 23-03-2020 20:30:00 2.1 C 64 % -3.98 C
248 23-03-2020 20:35:00 2 C 62 % -4.5 C
249 23-03-2020 20:40:00 2 C 62 % -4.5 C
250 23-03-2020 20:45:00 2 C 62 % -4.5 C
Sensor: Nr:Datum:Temp:Feuchte:Taupunkt:
Aussen-T/F 251 23-03-2020 20:50:00 2 C 62 % -4.5 C
252 23-03-2020 20:55:00 1.9 C 62 % -4.59 C
253 23-03-2020 21:00:00 1.9 C 64 % -4.17 C
254 23-03-2020 21:05:00 1.8 C 64 % -4.27 C
255 23-03-2020 21:10:00 1.7 C 65 % -4.16 C
256 23-03-2020 21:15:00 1.6 C 66 % -4.05 C
257 23-03-2020 21:20:00 1.5 C 66 % -4.15 C
258 23-03-2020 21:25:00 1.3 C 67 % -4.14 C
259 23-03-2020 21:30:00 1.2 C 67 % -4.23 C
260 23-03-2020 21:35:00 1.1 C 68 % -4.13 C
261 23-03-2020 21:40:00 1.1 C 68 % -4.13 C
262 23-03-2020 21:45:00 1 C 68 % -4.23 C
263 23-03-2020 21:50:00 0.9 C 68 % -4.32 C
264 23-03-2020 21:55:00 0.8 C 68 % -4.42 C
265 23-03-2020 22:00:00 0.7 C 69 % -4.32 C
266 23-03-2020 22:05:00 0.6 C 70 % -4.23 C
267 23-03-2020 22:10:00 0.4 C 71 % -4.23 C
268 23-03-2020 22:15:00 0.3 C 72 % -4.14 C
269 23-03-2020 22:20:00 0.2 C 72 % -4.24 C
270 23-03-2020 22:25:00 0.2 C 73 % -4.05 C
271 23-03-2020 22:30:00 0.1 C 74 % -3.97 C
272 23-03-2020 22:35:00 0 C 73 % -4.25 C
273 23-03-2020 22:40:00 -0.1 C 74 % -4.17 C
274 23-03-2020 22:45:00 -0.1 C 74 % -4.17 C
275 23-03-2020 22:50:00 -0.1 C 74 % -4.17 C
Sensor: Nr:Datum:Temp:Feuchte:Taupunkt:
Aussen-T/F 276 23-03-2020 22:55:00 -0.2 C 74 % -4.26 C
277 23-03-2020 23:00:00 -0.3 C 75 % -4.18 C
278 23-03-2020 23:05:00 -0.4 C 75 % -4.28 C
279 23-03-2020 23:10:00 -0.4 C 76 % -4.1 C
280 23-03-2020 23:15:00 -0.4 C 76 % -4.1 C
281 23-03-2020 23:20:00 -0.4 C 75 % -4.28 C
282 23-03-2020 23:25:00 -0.4 C 76 % -4.1 C
283 23-03-2020 23:30:00 -0.5 C 76 % -4.2 C
284 23-03-2020 23:35:00 -0.6 C 77 % -4.12 C
285 23-03-2020 23:40:00 -0.6 C 77 % -4.12 C
286 23-03-2020 23:45:00 -0.7 C 77 % -4.22 C
287 23-03-2020 23:50:00 -0.7 C 77 % -4.22 C
288 23-03-2020 23:55:00 -0.7 C 77 % -4.22 C
289 24-03-2020 00:00:00 -0.7 C 77 % -4.22 C
290 24-03-2020 00:05:00 -0.8 C 76 % -4.49 C
291 24-03-2020 00:10:00 -0.8 C 77 % -4.32 C
292 24-03-2020 00:15:00 -0.9 C 77 % -4.42 C
293 24-03-2020 00:20:00 -0.9 C 77 % -4.42 C
294 24-03-2020 00:25:00 -1.1 C 76 % -4.78 C
295 24-03-2020 00:30:00 -1.1 C 78 % -4.44 C
296 24-03-2020 00:35:00 -1.1 C 79 % -4.27 C
297 24-03-2020 00:40:00 -1.1 C 79 % -4.27 C
298 24-03-2020 00:45:00 -1.1 C 79 % -4.27 C
299 24-03-2020 00:50:00 -1.2 C 79 % -4.37 C
300 24-03-2020 00:55:00 -1.2 C 78 % -4.54 C
Sensor: Nr:Datum:Temp:Feuchte:Taupunkt:
Aussen-T/F 301 24-03-2020 01:00:00 -1.2 C 78 % -4.54 C
302 24-03-2020 01:05:00 -1.3 C 78 % -4.63 C
303 24-03-2020 01:10:00 -1.3 C 78 % -4.63 C
304 24-03-2020 01:15:00 -1.4 C 78 % -4.73 C
305 24-03-2020 01:20:00 -1.4 C 78 % -4.73 C
306 24-03-2020 01:25:00 -1.4 C 78 % -4.73 C
307 24-03-2020 01:30:00 -1.4 C 78 % -4.73 C
308 24-03-2020 01:35:00 -1.4 C 79 % -4.56 C
309 24-03-2020 01:40:00 -1.5 C 79 % -4.66 C
310 24-03-2020 01:45:00 -1.6 C 79 % -4.76 C
311 24-03-2020 01:50:00 -1.6 C 79 % -4.76 C
312 24-03-2020 01:55:00 -1.6 C 79 % -4.76 C
313 24-03-2020 02:00:00 -1.6 C 79 % -4.76 C
314 24-03-2020 02:05:00 -1.6 C 79 % -4.76 C
315 24-03-2020 02:10:00 -1.6 C 79 % -4.76 C
316 24-03-2020 02:15:00 -1.7 C 80 % -4.69 C
317 24-03-2020 02:20:00 -1.7 C 81 % -4.52 C
318 24-03-2020 02:25:00 -1.8 C 80 % -4.79 C
319 24-03-2020 02:30:00 -1.8 C 80 % -4.79 C
320 24-03-2020 02:35:00 -1.9 C 80 % -4.88 C
321 24-03-2020 02:40:00 -1.9 C 80 % -4.88 C
322 24-03-2020 02:45:00 -1.9 C 79 % -5.05 C
323 24-03-2020 02:50:00 -1.9 C 80 % -4.88 C
324 24-03-2020 02:55:00 -2 C 79 % -5.15 C
325 24-03-2020 03:00:00 -2.1 C 80 % -5.08 C
Sensor: Nr:Datum:Temp:Feuchte:Taupunkt:
Aussen-T/F 326 24-03-2020 03:05:00 -2.1 C 81 % -4.91 C
327 24-03-2020 03:10:00 -2.2 C 81 % -5.01 C
328 24-03-2020 03:15:00 -2.2 C 82 % -4.85 C
329 24-03-2020 03:20:00 -2.3 C 82 % -4.95 C
330 24-03-2020 03:25:00 -2.4 C 82 % -5.05 C
331 24-03-2020 03:30:00 -2.5 C 81 % -5.31 C
332 24-03-2020 03:35:00 -2.5 C 81 % -5.31 C
333 24-03-2020 03:40:00 -2.5 C 81 % -5.31 C
334 24-03-2020 03:45:00 -2.6 C 81 % -5.4 C
335 24-03-2020 03:50:00 -2.6 C 81 % -5.4 C
336 24-03-2020 03:55:00 -2.6 C 81 % -5.4 C
337 24-03-2020 04:00:00 -2.7 C 81 % -5.5 C
338 24-03-2020 04:05:00 -2.8 C 81 % -5.6 C
339 24-03-2020 04:10:00 -2.8 C 80 % -5.76 C
340 24-03-2020 04:15:00 -2.8 C 80 % -5.76 C
341 24-03-2020 04:20:00 -2.8 C 79 % -5.93 C
342 24-03-2020 04:25:00 -2.8 C 79 % -5.93 C
343 24-03-2020 04:30:00 -2.8 C 81 % -5.6 C
344 24-03-2020 04:35:00 -2.8 C 81 % -5.6 C
345 24-03-2020 04:40:00 -2.8 C 80 % -5.76 C
346 24-03-2020 04:45:00 -2.8 C 80 % -5.76 C
347 24-03-2020 04:50:00 -2.8 C 80 % -5.76 C
348 24-03-2020 04:55:00 -2.9 C 80 % -5.86 C
349 24-03-2020 05:00:00 -2.9 C 81 % -5.7 C
350 24-03-2020 05:05:00 -3 C 81 % -5.79 C
Sensor: Nr:Datum:Temp:Feuchte:Taupunkt:
Aussen-T/F 351 24-03-2020 05:10:00 -3 C 81 % -5.79 C
352 24-03-2020 05:15:00 -2.9 C 82 % -5.53 C
353 24-03-2020 05:20:00 -2.9 C 81 % -5.7 C
354 24-03-2020 05:25:00 -2.9 C 80 % -5.86 C
355 24-03-2020 05:30:00 -3 C 80 % -5.96 C
356 24-03-2020 05:35:00 -3.1 C 80 % -6.05 C
357 24-03-2020 05:40:00 -3.1 C 80 % -6.05 C
358 24-03-2020 05:45:00 -3.2 C 82 % -5.83 C
359 24-03-2020 05:50:00 -3.2 C 82 % -5.83 C
360 24-03-2020 05:55:00 -3.3 C 81 % -6.09 C
361 24-03-2020 06:00:00 -3.3 C 82 % -5.93 C
362 24-03-2020 06:05:00 -3.4 C 81 % -6.18 C
363 24-03-2020 06:10:00 -3.4 C 81 % -6.18 C
364 24-03-2020 06:15:00 -3.4 C 82 % -6.02 C
365 24-03-2020 06:20:00 -3.4 C 82 % -6.02 C
366 24-03-2020 06:25:00 -3.4 C 82 % -6.02 C
367 24-03-2020 06:30:00 -3.5 C 82 % -6.12 C
368 24-03-2020 06:35:00 -3.5 C 82 % -6.12 C
369 24-03-2020 06:40:00 -3.5 C 82 % -6.12 C
370 24-03-2020 06:45:00 -3.4 C 82 % -6.02 C
371 24-03-2020 06:50:00 -3.4 C 82 % -6.02 C
372 24-03-2020 06:55:00 -3.4 C 82 % -6.02 C
373 24-03-2020 07:00:00 -3.3 C 82 % -5.93 C
374 24-03-2020 07:05:00 -3.3 C 82 % -5.93 C
375 24-03-2020 07:10:00 -3.3 C 83 % -5.77 C
Sensor: Nr:Datum:Temp:Feuchte:Taupunkt:
Aussen-T/F 376 24-03-2020 07:15:00 -3.3 C 83 % -5.77 C
377 24-03-2020 07:20:00 -3.2 C 82 % -5.83 C
378 24-03-2020 07:25:00 -3.2 C 82 % -5.83 C
379 24-03-2020 07:30:00 -3.1 C 82 % -5.73 C
380 24-03-2020 07:35:00 -3.1 C 82 % -5.73 C
381 24-03-2020 07:40:00 -3.1 C 82 % -5.73 C
382 24-03-2020 07:45:00 -2.9 C 82 % -5.53 C
383 24-03-2020 07:50:00 -2.9 C 82 % -5.53 C
384 24-03-2020 07:55:00 -2.8 C 82 % -5.44 C
385 24-03-2020 08:00:00 -2.8 C 81 % -5.6 C
386 24-03-2020 08:05:00 -2.7 C 81 % -5.5 C
387 24-03-2020 08:10:00 -2.6 C 81 % -5.4 C
388 24-03-2020 08:15:00 -2.5 C 81 % -5.31 C
389 24-03-2020 08:20:00 -2.4 C 81 % -5.21 C
390 24-03-2020 08:25:00 -2.3 C 80 % -5.27 C
391 24-03-2020 08:30:00 -2.2 C 80 % -5.18 C
392 24-03-2020 08:35:00 -2.1 C 80 % -5.08 C
393 24-03-2020 08:40:00 -2 C 80 % -4.98 C
394 24-03-2020 08:45:00 -1.8 C 78 % -5.12 C
395 24-03-2020 08:50:00 -1.7 C 79 % -4.85 C
396 24-03-2020 08:55:00 -1.6 C 79 % -4.76 C
397 24-03-2020 09:00:00 -1.4 C 76 % -5.07 C
398 24-03-2020 09:05:00 -1.1 C 76 % -4.78 C
399 24-03-2020 09:10:00 -0.8 C 73 % -5.02 C
400 24-03-2020 09:15:00 -0.6 C 74 % -4.65 C
Sensor: Nr:Datum:Temp:Feuchte:Taupunkt:
Aussen-T/F 401 24-03-2020 09:20:00 -0.4 C 73 % -4.64 C
402 24-03-2020 09:25:00 -0.2 C 73 % -4.45 C
403 24-03-2020 09:30:00 0.2 C 68 % -4.99 C
404 24-03-2020 09:35:00 0.7 C 63 % -5.52 C
405 24-03-2020 09:40:00 1.1 C 65 % -4.73 C
406 24-03-2020 09:45:00 1.7 C 57 % -5.89 C
407 24-03-2020 09:50:00 2.2 C 60 % -4.74 C
408 24-03-2020 09:55:00 2.4 C 57 % -5.23 C
409 24-03-2020 10:00:00 2.8 C 51 % -6.31 C
410 24-03-2020 10:05:00 3.3 C 48 % -6.64 C
411 24-03-2020 10:10:00 3.6 C 47 % -6.64 C
412 24-03-2020 10:15:00 3.8 C 43 % -7.61 C
413 24-03-2020 10:20:00 4.1 C 43 % -7.33 C
414 24-03-2020 10:25:00 4.3 C 41 % -7.77 C
415 24-03-2020 10:30:00 4.5 C 40 % -7.9 C
416 24-03-2020 10:35:00 4.8 C 40 % -7.63 C
417 24-03-2020 10:40:00 4.8 C 41 % -7.31 C
418 24-03-2020 10:45:00 5.1 C 37 % -8.36 C
419 24-03-2020 10:50:00 5.3 C 37 % -8.19 C
420 24-03-2020 10:55:00 5.6 C 35 % -8.63 C
421 24-03-2020 11:00:00 5.7 C 35 % -8.54 C
422 24-03-2020 11:05:00 5.8 C 35 % -8.45 C
423 24-03-2020 11:10:00 6.1 C 36 % -7.82 C
424 24-03-2020 11:15:00 6.3 C 34 % -8.38 C
425 24-03-2020 11:20:00 6.6 C 35 % -7.74 C
Sensor: Nr:Datum:Temp:Feuchte:Taupunkt:
Aussen-T/F 426 24-03-2020 11:25:00 6.7 C 34 % -8.03 C
427 24-03-2020 11:30:00 6.8 C 33 % -8.32 C
428 24-03-2020 11:35:00 6.9 C 35 % -7.48 C
429 24-03-2020 11:40:00 7.1 C 32 % -8.45 C
430 24-03-2020 11:45:00 7.1 C 32 % -8.45 C
431 24-03-2020 11:50:00 7.2 C 33 % -7.97 C
432 24-03-2020 11:55:00 7.3 C 32 % -8.28 C
433 24-03-2020 12:00:00 7.6 C 32 % -8.01 C
434 24-03-2020 12:05:00 7.7 C 31 % -8.33 C
435 24-03-2020 12:10:00 7.8 C 31 % -8.24 C
436 24-03-2020 12:15:00 8.1 C 30 % -8.4 C
437 24-03-2020 12:20:00 8.2 C 29 % -8.75 C
438 24-03-2020 12:25:00 8.2 C 30 % -8.32 C
439 24-03-2020 12:30:00 8.3 C 30 % -8.23 C
440 24-03-2020 12:35:00 8.6 C 29 % -8.4 C
441 24-03-2020 12:40:00 8.7 C 30 % -7.88 C
442 24-03-2020 12:45:00 8.8 C 29 % -8.23 C
443 24-03-2020 12:50:00 8.9 C 29 % -8.14 C
444 24-03-2020 12:55:00 8.9 C 30 % -7.71 C
445 24-03-2020 13:00:00 8.9 C 31 % -7.28 C
446 24-03-2020 13:05:00 9.1 C 32 % -6.7 C
447 24-03-2020 13:10:00 9.1 C 29 % -7.97 C
448 24-03-2020 13:15:00 9 C 28 % -8.5 C
449 24-03-2020 13:20:00 9 C 29 % -8.06 C
450 24-03-2020 13:25:00 9.1 C 29 % -7.97 C
Sensor: Nr:Datum:Temp:Feuchte:Taupunkt:
Aussen-T/F 451 24-03-2020 13:30:00 9.2 C 29 % -7.88 C
452 24-03-2020 13:35:00 9.2 C 29 % -7.88 C
453 24-03-2020 13:40:00 9.4 C 28 % -8.16 C
454 24-03-2020 13:45:00 9.4 C 28 % -8.16 C
455 24-03-2020 13:50:00 9.3 C 27 % -8.71 C
456 24-03-2020 13:55:00 9.4 C 28 % -8.16 C
457 24-03-2020 14:00:00 9.5 C 28 % -8.07 C
458 24-03-2020 14:05:00 9.6 C 27 % -8.45 C
459 24-03-2020 14:10:00 9.6 C 27 % -8.45 C
460 24-03-2020 14:15:00 9.5 C 27 % -8.54 C
461 24-03-2020 14:20:00 9.4 C 28 % -8.16 C
462 24-03-2020 14:25:00 9.5 C 26 % -9.02 C
463 24-03-2020 14:30:00 9.4 C 27 % -8.62 C
464 24-03-2020 14:35:00 9.4 C 27 % -8.62 C
465 24-03-2020 14:40:00 9.3 C 27 % -8.71 C
466 24-03-2020 14:45:00 9.3 C 27 % -8.71 C
467 24-03-2020 14:50:00 9.4 C 26 % -9.11 C
468 24-03-2020 14:55:00 9.4 C 26 % -9.11 C
469 24-03-2020 15:00:00 9.4 C 27 % -8.62 C
470 24-03-2020 15:05:00 9.6 C 27 % -8.45 C
471 24-03-2020 15:10:00 9.7 C 26 % -8.85 C
472 24-03-2020 15:15:00 9.7 C 27 % -8.37 C
473 24-03-2020 15:20:00 9.9 C 26 % -8.68 C
474 24-03-2020 15:25:00 9.9 C 26 % -8.68 C
475 24-03-2020 15:30:00 9.9 C 26 % -8.68 C
Sensor: Nr:Datum:Temp:Feuchte:Taupunkt:
Aussen-T/F 476 24-03-2020 15:35:00 10 C 26 % -8.59 C
477 24-03-2020 15:40:00 10.2 C 25 % -8.92 C
478 24-03-2020 15:45:00 10.3 C 25 % -8.84 C
479 24-03-2020 15:50:00 10.3 C 26 % -8.34 C
480 24-03-2020 15:55:00 10.3 C 26 % -8.34 C
481 24-03-2020 16:00:00 10.3 C 26 % -8.34 C
482 24-03-2020 16:05:00 10.5 C 26 % -8.16 C
483 24-03-2020 16:10:00 10.6 C 25 % -8.58 C
484 24-03-2020 16:15:00 10.7 C 25 % -8.5 C
485 24-03-2020 16:20:00 10.8 C 24 % -8.93 C
486 24-03-2020 16:25:00 10.8 C 25 % -8.41 C
487 24-03-2020 16:30:00 10.8 C 23 % -9.47 C
488 24-03-2020 16:35:00 10.8 C 23 % -9.47 C
489 24-03-2020 16:40:00 10.9 C 25 % -8.33 C
490 24-03-2020 16:45:00 11.2 C 24 % -8.59 C
491 24-03-2020 16:50:00 11.2 C 23 % -9.13 C
492 24-03-2020 16:55:00 11.2 C 23 % -9.13 C
493 24-03-2020 17:00:00 11.1 C 24 % -8.68 C
494 24-03-2020 17:05:00 11.1 C 25 % -8.15 C
495 24-03-2020 17:10:00 11.3 C 23 % -9.05 C
496 24-03-2020 17:15:00 11.4 C 23 % -8.97 C
497 24-03-2020 17:20:00 11.4 C 22 % -9.53 C
498 24-03-2020 17:25:00 11.3 C 24 % -8.51 C
499 24-03-2020 17:30:00 11.3 C 22 % -9.61 C
500 24-03-2020 17:35:00 11.1 C 22 % -9.78 C
Sensor: Nr:Datum:Temp:Feuchte:Taupunkt:
Aussen-T/F 501 24-03-2020 17:40:00 11 C 23 % -9.3 C
502 24-03-2020 17:45:00 10.9 C 23 % -9.39 C
503 24-03-2020 17:50:00 10.8 C 24 % -8.93 C
504 24-03-2020 17:55:00 10.7 C 23 % -9.56 C
505 24-03-2020 18:00:00 10.7 C 24 % -9.02 C
506 24-03-2020 18:05:00 10.7 C 23 % -9.56 C
507 24-03-2020 18:10:00 10.4 C 24 % -9.27 C
508 24-03-2020 18:15:00 10.4 C 24 % -9.27 C
509 24-03-2020 18:20:00 10.3 C 23 % -9.89 C
510 24-03-2020 18:25:00 10.1 C 31 % -6.24 C
511 24-03-2020 18:30:00 9.8 C 31 % -6.5 C
512 24-03-2020 18:35:00 9.5 C 26 % -9.02 C
513 24-03-2020 18:40:00 9 C 37 % -4.89 C
514 24-03-2020 18:45:00 8.3 C 38 % -5.16 C
515 24-03-2020 18:50:00 7.6 C 42 % -4.47 C
516 24-03-2020 18:55:00 6.8 C 44 % -4.58 C
517 24-03-2020 19:00:00 6.2 C 45 % -4.83 C
518 24-03-2020 19:05:00 5.7 C 47 % -4.71 C
519 24-03-2020 19:10:00 5.3 C 48 % -4.8 C
520 24-03-2020 19:15:00 4.9 C 49 % -4.9 C
521 24-03-2020 19:20:00 4.7 C 50 % -4.82 C
522 24-03-2020 19:25:00 4.4 C 51 % -4.83 C
523 24-03-2020 19:30:00 4.2 C 52 % -4.76 C
524 24-03-2020 19:35:00 3.9 C 53 % -4.79 C
525 24-03-2020 19:40:00 3.8 C 54 % -4.63 C
Sensor: Nr:Datum:Temp:Feuchte:Taupunkt:
Aussen-T/F 526 24-03-2020 19:45:00 3.6 C 54 % -4.82 C
527 24-03-2020 19:50:00 3.5 C 54 % -4.91 C
528 24-03-2020 19:55:00 3.4 C 55 % -4.77 C
529 24-03-2020 20:00:00 3.3 C 55 % -4.86 C
530 24-03-2020 20:05:00 3.2 C 56 % -4.71 C
531 24-03-2020 20:10:00 3.1 C 55 % -5.05 C
532 24-03-2020 20:15:00 3 C 56 % -4.9 C
533 24-03-2020 20:20:00 2.9 C 56 % -4.99 C
534 24-03-2020 20:25:00 2.8 C 57 % -4.86 C
535 24-03-2020 20:30:00 2.8 C 57 % -4.86 C
536 24-03-2020 20:35:00 2.7 C 58 % -4.72 C
537 24-03-2020 20:40:00 2.6 C 58 % -4.81 C
538 24-03-2020 20:45:00 2.5 C 59 % -4.68 C
539 24-03-2020 20:50:00 2.4 C 59 % -4.78 C
540 24-03-2020 20:55:00 2.3 C 59 % -4.87 C
541 24-03-2020 21:00:00 2.2 C 58 % -5.19 C
542 24-03-2020 21:05:00 2.2 C 58 % -5.19 C
543 24-03-2020 21:10:00 2.2 C 59 % -4.96 C
544 24-03-2020 21:15:00 2.1 C 59 % -5.06 C
545 24-03-2020 21:20:00 2.1 C 59 % -5.06 C
546 24-03-2020 21:25:00 2 C 59 % -5.15 C
547 24-03-2020 21:30:00 1.9 C 60 % -5.03 C
548 24-03-2020 21:35:00 1.9 C 60 % -5.03 C
549 24-03-2020 21:40:00 1.8 C 60 % -5.12 C
550 24-03-2020 21:45:00 1.8 C 60 % -5.12 C
Sensor: Nr:Datum:Temp:Feuchte:Taupunkt:
Aussen-T/F 551 24-03-2020 21:50:00 1.7 C 60 % -5.21 C
552 24-03-2020 21:55:00 1.7 C 60 % -5.21 C
553 24-03-2020 22:00:00 1.6 C 60 % -5.31 C
554 24-03-2020 22:05:00 1.6 C 61 % -5.09 C
555 24-03-2020 22:10:00 1.5 C 62 % -4.97 C
556 24-03-2020 22:15:00 1.4 C 62 % -5.07 C
557 24-03-2020 22:20:00 1.3 C 63 % -4.95 C
558 24-03-2020 22:25:00 1.2 C 64 % -4.84 C
559 24-03-2020 22:30:00 1.1 C 64 % -4.93 C
560 24-03-2020 22:35:00 0.9 C 66 % -4.72 C
561 24-03-2020 22:40:00 0.8 C 67 % -4.61 C
562 24-03-2020 22:45:00 0.7 C 68 % -4.51 C
563 24-03-2020 22:50:00 0.6 C 67 % -4.81 C
564 24-03-2020 22:55:00 0.4 C 68 % -4.8 C
565 24-03-2020 23:00:00 0.4 C 70 % -4.42 C
566 24-03-2020 23:05:00 0.4 C 68 % -4.8 C
567 24-03-2020 23:10:00 0.3 C 67 % -5.09 C
568 24-03-2020 23:15:00 0.2 C 66 % -5.38 C
569 24-03-2020 23:20:00 0.1 C 66 % -5.48 C
570 24-03-2020 23:25:00 0 C 65 % -5.78 C
571 24-03-2020 23:30:00 -0.1 C 65 % -5.88 C
572 24-03-2020 23:35:00 -0.2 C 67 % -5.58 C
573 24-03-2020 23:40:00 -0.2 C 66 % -5.77 C
574 24-03-2020 23:45:00 -0.2 C 68 % -5.38 C
575 24-03-2020 23:50:00 -0.3 C 68 % -5.48 C
Sensor: Nr:Datum:Temp:Feuchte:Taupunkt:
Aussen-T/F 576 24-03-2020 23:55:00 -0.3 C 68 % -5.48 C
577 25-03-2020 00:00:00 -0.4 C 68 % -5.57 C
578 25-03-2020 00:05:00 -0.4 C 70 % -5.19 C
579 25-03-2020 00:10:00 -0.5 C 70 % -5.29 C
580 25-03-2020 00:15:00 -0.6 C 71 % -5.2 C
581 25-03-2020 00:20:00 -0.7 C 71 % -5.29 C
582 25-03-2020 00:25:00 -0.7 C 71 % -5.29 C
583 25-03-2020 00:30:00 -0.7 C 69 % -5.67 C
584 25-03-2020 00:35:00 -0.7 C 68 % -5.86 C
585 25-03-2020 00:40:00 -0.7 C 69 % -5.67 C
586 25-03-2020 00:45:00 -0.7 C 69 % -5.67 C
587 25-03-2020 00:50:00 -0.7 C 69 % -5.67 C
588 25-03-2020 00:55:00 -0.7 C 69 % -5.67 C
589 25-03-2020 01:00:00 -0.7 C 69 % -5.67 C
590 25-03-2020 01:05:00 -0.8 C 70 % -5.58 C
591 25-03-2020 01:10:00 -0.7 C 70 % -5.48 C
592 25-03-2020 01:15:00 -0.7 C 70 % -5.48 C
593 25-03-2020 01:20:00 -0.7 C 69 % -5.67 C
594 25-03-2020 01:25:00 -0.7 C 68 % -5.86 C
595 25-03-2020 01:30:00 -0.7 C 68 % -5.86 C
596 25-03-2020 01:35:00 -0.7 C 69 % -5.67 C
597 25-03-2020 01:40:00 -0.7 C 68 % -5.86 C
598 25-03-2020 01:45:00 -0.7 C 67 % -6.05 C
599 25-03-2020 01:50:00 -0.7 C 67 % -6.05 C
600 25-03-2020 01:55:00 -0.7 C 67 % -6.05 C
Sensor: Nr:Datum:Temp:Feuchte:Taupunkt:
Aussen-T/F 601 25-03-2020 02:00:00 -0.7 C 67 % -6.05 C
602 25-03-2020 02:05:00 -0.7 C 68 % -5.86 C
603 25-03-2020 02:10:00 -0.8 C 67 % -6.15 C
604 25-03-2020 02:15:00 -0.8 C 67 % -6.15 C
605 25-03-2020 02:20:00 -0.9 C 67 % -6.25 C
606 25-03-2020 02:25:00 -0.9 C 69 % -5.86 C
607 25-03-2020 02:30:00 -1.1 C 68 % -6.24 C
608 25-03-2020 02:35:00 -1.1 C 68 % -6.24 C
609 25-03-2020 02:40:00 -1.1 C 68 % -6.24 C
610 25-03-2020 02:45:00 -1.1 C 68 % -6.24 C
611 25-03-2020 02:50:00 -1 C 68 % -6.15 C
612 25-03-2020 02:55:00 -1 C 67 % -6.34 C
613 25-03-2020 03:00:00 -0.9 C 67 % -6.25 C
614 25-03-2020 03:05:00 -0.9 C 67 % -6.25 C
615 25-03-2020 03:10:00 -0.9 C 67 % -6.25 C
616 25-03-2020 03:15:00 -0.9 C 67 % -6.25 C
617 25-03-2020 03:20:00 -0.9 C 67 % -6.25 C
618 25-03-2020 03:25:00 -1 C 69 % -5.96 C
619 25-03-2020 03:30:00 -1.2 C 69 % -6.15 C
620 25-03-2020 03:35:00 -1.3 C 70 % -6.06 C
621 25-03-2020 03:40:00 -1.4 C 70 % -6.15 C
622 25-03-2020 03:45:00 -1.4 C 70 % -6.15 C
623 25-03-2020 03:50:00 -1.5 C 70 % -6.25 C
624 25-03-2020 03:55:00 -1.6 C 70 % -6.34 C
625 25-03-2020 04:00:00 -1.6 C 71 % -6.16 C
Sensor: Nr:Datum:Temp:Feuchte:Taupunkt:
Aussen-T/F 626 25-03-2020 04:05:00 -1.7 C 72 % -6.07 C
627 25-03-2020 04:10:00 -1.7 C 72 % -6.07 C
628 25-03-2020 04:15:00 -1.8 C 72 % -6.17 C
629 25-03-2020 04:20:00 -1.8 C 73 % -5.99 C
630 25-03-2020 04:25:00 -1.8 C 74 % -5.81 C
631 25-03-2020 04:30:00 -1.9 C 73 % -6.09 C
632 25-03-2020 04:35:00 -2 C 73 % -6.18 C
633 25-03-2020 04:40:00 -2.1 C 72 % -6.46 C
634 25-03-2020 04:45:00 -2.1 C 73 % -6.28 C
635 25-03-2020 04:50:00 -2.2 C 73 % -6.38 C
636 25-03-2020 04:55:00 -2.3 C 73 % -6.47 C
637 25-03-2020 05:00:00 -2.3 C 74 % -6.29 C
638 25-03-2020 05:05:00 -2.3 C 74 % -6.29 C
639 25-03-2020 05:10:00 -2.3 C 74 % -6.29 C
640 25-03-2020 05:15:00 -2.4 C 74 % -6.39 C
641 25-03-2020 05:20:00 -2.4 C 74 % -6.39 C
642 25-03-2020 05:25:00 -2.5 C 74 % -6.49 C
643 25-03-2020 05:30:00 -2.5 C 74 % -6.49 C
644 25-03-2020 05:35:00 -2.5 C 74 % -6.49 C
645 25-03-2020 05:40:00 -2.6 C 74 % -6.58 C
646 25-03-2020 05:45:00 -2.6 C 75 % -6.41 C
647 25-03-2020 05:50:00 -2.7 C 75 % -6.51 C
648 25-03-2020 05:55:00 -2.7 C 76 % -6.33 C
649 25-03-2020 06:00:00 -2.8 C 76 % -6.43 C
650 25-03-2020 06:05:00 -2.9 C 76 % -6.53 C
Sensor: Nr:Datum:Temp:Feuchte:Taupunkt:
Aussen-T/F 651 25-03-2020 06:10:00 -2.9 C 77 % -6.36 C
652 25-03-2020 06:15:00 -2.9 C 77 % -6.36 C
653 25-03-2020 06:20:00 -2.9 C 77 % -6.36 C
654 25-03-2020 06:25:00 -3 C 78 % -6.29 C
655 25-03-2020 06:30:00 -3.1 C 78 % -6.38 C
656 25-03-2020 06:35:00 -3.1 C 78 % -6.38 C
657 25-03-2020 06:40:00 -3.2 C 79 % -6.32 C
658 25-03-2020 06:45:00 -3.2 C 79 % -6.32 C
659 25-03-2020 06:50:00 -3.2 C 78 % -6.48 C
660 25-03-2020 06:55:00 -3.1 C 79 % -6.22 C
661 25-03-2020 07:00:00 -3.1 C 79 % -6.22 C
662 25-03-2020 07:05:00 -3.1 C 79 % -6.22 C
663 25-03-2020 07:10:00 -3.1 C 80 % -6.05 C
664 25-03-2020 07:15:00 -3 C 80 % -5.96 C
665 25-03-2020 07:20:00 -2.9 C 80 % -5.86 C
666 25-03-2020 07:25:00 -2.9 C 80 % -5.86 C
667 25-03-2020 07:30:00 -2.8 C 81 % -5.6 C
668 25-03-2020 07:35:00 -2.8 C 81 % -5.6 C
669 25-03-2020 07:40:00 -2.8 C 81 % -5.6 C
670 25-03-2020 07:45:00 -2.7 C 81 % -5.5 C
671 25-03-2020 07:50:00 -2.6 C 80 % -5.57 C
672 25-03-2020 07:55:00 -2.6 C 79 % -5.73 C
673 25-03-2020 08:00:00 -2.4 C 78 % -5.7 C
674 25-03-2020 08:05:00 -2.4 C 78 % -5.7 C
675 25-03-2020 08:10:00 -2.3 C 77 % -5.78 C
Sensor: Nr:Datum:Temp:Feuchte:Taupunkt:
Aussen-T/F 676 25-03-2020 08:15:00 -2.2 C 77 % -5.68 C
677 25-03-2020 08:20:00 -2.1 C 77 % -5.58 C
678 25-03-2020 08:25:00 -2.1 C 76 % -5.75 C
679 25-03-2020 08:30:00 -1.9 C 75 % -5.73 C
680 25-03-2020 08:35:00 -1.8 C 76 % -5.46 C
681 25-03-2020 08:40:00 -1.8 C 76 % -5.46 C
682 25-03-2020 08:45:00 -1.7 C 75 % -5.54 C
683 25-03-2020 08:50:00 -1.6 C 75 % -5.44 C
684 25-03-2020 08:55:00 -1.4 C 76 % -5.07 C
685 25-03-2020 09:00:00 -1.3 C 75 % -5.15 C
686 25-03-2020 09:05:00 -1.2 C 76 % -4.88 C
687 25-03-2020 09:10:00 -1 C 75 % -4.86 C
688 25-03-2020 09:15:00 -0.9 C 75 % -4.76 C
689 25-03-2020 09:20:00 -0.7 C 74 % -4.75 C
690 25-03-2020 09:25:00 -0.6 C 74 % -4.65 C
691 25-03-2020 09:30:00 -0.3 C 72 % -4.72 C
692 25-03-2020 09:35:00 0.3 C 66 % -5.29 C
693 25-03-2020 09:40:00 0.8 C 64 % -5.22 C
694 25-03-2020 09:45:00 1.5 C 59 % -5.62 C
695 25-03-2020 09:50:00 2.2 C 56 % -5.65 C
696 25-03-2020 09:55:00 2.5 C 58 % -4.91 C
697 25-03-2020 10:00:00 2.8 C 53 % -5.81 C
698 25-03-2020 10:05:00 3.2 C 51 % -5.94 C
699 25-03-2020 10:10:00 3.6 C 53 % -5.07 C
700 25-03-2020 10:15:00 3.7 C 50 % -5.74 C
Sensor: Nr:Datum:Temp:Feuchte:Taupunkt:
Aussen-T/F 701 25-03-2020 10:20:00 3.8 C 49 % -5.91 C
702 25-03-2020 10:25:00 4.1 C 46 % -6.46 C
703 25-03-2020 10:30:00 4.4 C 48 % -5.63 C
704 25-03-2020 10:35:00 4.7 C 44 % -6.49 C
705 25-03-2020 10:40:00 4.8 C 45 % -6.11 C
706 25-03-2020 10:45:00 5 C 43 % -6.52 C
707 25-03-2020 10:50:00 5.1 C 44 % -6.13 C
708 25-03-2020 10:55:00 5.3 C 43 % -6.24 C
709 25-03-2020 11:00:00 5.5 C 40 % -7 C
710 25-03-2020 11:05:00 5.6 C 40 % -6.91 C
711 25-03-2020 11:10:00 5.8 C 39 % -7.06 C
712 25-03-2020 11:15:00 6.1 C 43 % -5.52 C
713 25-03-2020 11:20:00 6.3 C 39 % -6.61 C
714 25-03-2020 11:25:00 6.5 C 39 % -6.43 C
715 25-03-2020 11:30:00 6.7 C 38 % -6.59 C
716 25-03-2020 11:35:00 6.8 C 36 % -7.2 C
717 25-03-2020 11:40:00 6.9 C 36 % -7.11 C
718 25-03-2020 11:45:00 7 C 35 % -7.39 C
719 25-03-2020 11:50:00 7.1 C 35 % -7.3 C
720 25-03-2020 11:55:00 7.3 C 37 % -6.4 C
721 25-03-2020 12:00:00 7.7 C 35 % -6.77 C
722 25-03-2020 12:05:00 7.8 C 33 % -7.44 C
723 25-03-2020 12:10:00 7.9 C 32 % -7.75 C
724 25-03-2020 12:15:00 8.1 C 32 % -7.57 C
725 25-03-2020 12:20:00 8.3 C 30 % -8.23 C
Sensor: Nr:Datum:Temp:Feuchte:Taupunkt:
Aussen-T/F 726 25-03-2020 12:25:00 8.4 C 28 % -9.02 C
727 25-03-2020 12:30:00 8.6 C 30 % -7.97 C
728 25-03-2020 12:35:00 8.5 C 32 % -7.22 C
729 25-03-2020 12:40:00 8.6 C 32 % -7.14 C
730 25-03-2020 12:45:00 8.7 C 33 % -6.65 C
731 25-03-2020 12:50:00 8.9 C 35 % -5.71 C
732 25-03-2020 12:55:00 9 C 30 % -7.62 C
733 25-03-2020 13:00:00 9.1 C 28 % -8.42 C
734 25-03-2020 13:05:00 9.2 C 29 % -7.88 C
735 25-03-2020 13:10:00 9.3 C 30 % -7.36 C
736 25-03-2020 13:15:00 9.6 C 29 % -7.54 C
737 25-03-2020 13:20:00 9.8 C 30 % -6.92 C
738 25-03-2020 13:25:00 10.2 C 28 % -7.47 C
739 25-03-2020 13:30:00 10.1 C 28 % -7.56 C
740 25-03-2020 13:35:00 9.9 C 27 % -8.19 C
741 25-03-2020 13:40:00 9.8 C 27 % -8.28 C
742 25-03-2020 13:45:00 10 C 28 % -7.64 C
743 25-03-2020 13:50:00 10.2 C 26 % -8.42 C
744 25-03-2020 13:55:00 10.1 C 26 % -8.51 C
745 25-03-2020 14:00:00 10 C 26 % -8.59 C
746 25-03-2020 14:05:00 10.1 C 27 % -8.02 C
747 25-03-2020 14:10:00 10 C 25 % -9.09 C
748 25-03-2020 14:15:00 10 C 26 % -8.59 C
749 25-03-2020 14:20:00 10 C 27 % -8.11 C
750 25-03-2020 14:25:00 10.2 C 27 % -7.94 C
Sensor: Nr:Datum:Temp:Feuchte:Taupunkt:
Aussen-T/F 751 25-03-2020 14:30:00 10.3 C 28 % -7.38 C
752 25-03-2020 14:35:00 10.3 C 27 % -7.85 C
753 25-03-2020 14:40:00 10.2 C 27 % -7.94 C
754 25-03-2020 14:45:00 10.1 C 26 % -8.51 C
755 25-03-2020 14:50:00 10.1 C 26 % -8.51 C
756 25-03-2020 14:55:00 10.2 C 26 % -8.42 C
757 25-03-2020 15:00:00 10.3 C 27 % -7.85 C
758 25-03-2020 15:05:00 10.4 C 27 % -7.77 C
759 25-03-2020 15:10:00 10.6 C 29 % -6.67 C
760 25-03-2020 15:15:00 10.6 C 26 % -8.08 C
761 25-03-2020 15:20:00 10.6 C 27 % -7.59 C
762 25-03-2020 15:25:00 10.7 C 27 % -7.51 C
763 25-03-2020 15:30:00 10.7 C 28 % -7.04 C
764 25-03-2020 15:35:00 10.8 C 27 % -7.42 C
765 25-03-2020 15:40:00 11 C 26 % -7.74 C
766 25-03-2020 15:45:00 11.2 C 26 % -7.57 C
767 25-03-2020 15:50:00 11.3 C 25 % -7.98 C
768 25-03-2020 15:55:00 11.4 C 25 % -7.9 C
769 25-03-2020 16:00:00 11.6 C 24 % -8.25 C
770 25-03-2020 16:05:00 11.7 C 24 % -8.17 C
771 25-03-2020 16:10:00 11.8 C 24 % -8.08 C
772 25-03-2020 16:15:00 11.8 C 24 % -8.08 C
773 25-03-2020 16:20:00 12.2 C 24 % -7.75 C
774 25-03-2020 16:25:00 12.4 C 23 % -8.12 C
775 25-03-2020 16:30:00 12.4 C 22 % -8.69 C
Sensor: Nr:Datum:Temp:Feuchte:Taupunkt:
Aussen-T/F 776 25-03-2020 16:35:00 12 C 22 % -9.03 C
777 25-03-2020 16:40:00 11.8 C 22 % -9.19 C
778 25-03-2020 16:45:00 11.9 C 24 % -8 C
779 25-03-2020 16:50:00 12.2 C 23 % -8.29 C
780 25-03-2020 16:55:00 12.6 C 23 % -7.95 C
781 25-03-2020 17:00:00 12.6 C 23 % -7.95 C
782 25-03-2020 17:05:00 12.5 C 22 % -8.61 C
783 25-03-2020 17:10:00 12.3 C 23 % -8.21 C
784 25-03-2020 17:15:00 12.3 C 22 % -8.77 C
785 25-03-2020 17:20:00 12.3 C 23 % -8.21 C
786 25-03-2020 17:25:00 12.2 C 25 % -7.22 C
787 25-03-2020 17:30:00 12.1 C 24 % -7.83 C
788 25-03-2020 17:35:00 11.9 C 23 % -8.54 C
789 25-03-2020 17:40:00 11.7 C 23 % -8.71 C
790 25-03-2020 17:45:00 11.6 C 27 % -6.74 C
791 25-03-2020 17:50:00 11.8 C 25 % -7.56 C
792 25-03-2020 17:55:00 11.8 C 25 % -7.56 C
793 25-03-2020 18:00:00 11.8 C 26 % -7.05 C
794 25-03-2020 18:05:00 11.6 C 25 % -7.73 C
795 25-03-2020 18:10:00 11.4 C 25 % -7.9 C
796 25-03-2020 18:15:00 11.2 C 28 % -6.61 C
797 25-03-2020 18:20:00 10.9 C 31 % -5.54 C
798 25-03-2020 18:25:00 10.8 C 30 % -6.06 C
799 25-03-2020 18:30:00 10.5 C 32 % -5.47 C
800 25-03-2020 18:35:00 10.1 C 35 % -4.65 C
Sensor: Nr:Datum:Temp:Feuchte:Taupunkt:
Aussen-T/F 801 25-03-2020 18:40:00 9.6 C 35 % -5.09 C
802 25-03-2020 18:45:00 9 C 39 % -4.19 C
803 25-03-2020 18:50:00 8.5 C 40 % -4.31 C
804 25-03-2020 18:55:00 8 C 41 % -4.43 C
805 25-03-2020 19:00:00 7.6 C 45 % -3.55 C
806 25-03-2020 19:05:00 7.1 C 44 % -4.31 C
807 25-03-2020 19:10:00 6.7 C 44 % -4.67 C
808 25-03-2020 19:15:00 6.5 C 45 % -4.56 C
809 25-03-2020 19:20:00 6.2 C 48 % -3.98 C
810 25-03-2020 19:25:00 6 C 45 % -5.01 C
811 25-03-2020 19:30:00 6.1 C 42 % -5.83 C
812 25-03-2020 19:35:00 6.2 C 45 % -4.83 C
813 25-03-2020 19:40:00 6.1 C 48 % -4.07 C
814 25-03-2020 19:45:00 5.8 C 49 % -4.07 C
815 25-03-2020 19:50:00 5.5 C 50 % -4.08 C
816 25-03-2020 19:55:00 5.3 C 49 % -4.53 C
817 25-03-2020 20:00:00 5.2 C 50 % -4.35 C
818 25-03-2020 20:05:00 5.1 C 50 % -4.45 C
819 25-03-2020 20:10:00 4.9 C 51 % -4.37 C
820 25-03-2020 20:15:00 4.8 C 52 % -4.2 C
821 25-03-2020 20:20:00 4.6 C 53 % -4.14 C
822 25-03-2020 20:25:00 4.5 C 53 % -4.23 C
823 25-03-2020 20:30:00 4.7 C 50 % -4.82 C
824 25-03-2020 20:35:00 4.8 C 49 % -4.99 C
825 25-03-2020 20:40:00 4.9 C 50 % -4.63 C
Sensor: Nr:Datum:Temp:Feuchte:Taupunkt:
Aussen-T/F 826 25-03-2020 20:45:00 4.8 C 49 % -4.99 C
827 25-03-2020 20:50:00 4.7 C 46 % -5.91 C
828 25-03-2020 20:55:00 4.8 C 53 % -3.95 C
829 25-03-2020 21:00:00 5.1 C 46 % -5.54 C
830 25-03-2020 21:05:00 5.2 C 46 % -5.45 C
831 25-03-2020 21:10:00 5.3 C 47 % -5.08 C
832 25-03-2020 21:15:00 5.4 C 44 % -5.85 C
833 25-03-2020 21:20:00 5.4 C 48 % -4.71 C
834 25-03-2020 21:25:00 5.3 C 45 % -5.65 C
835 25-03-2020 21:30:00 5.3 C 46 % -5.36 C
836 25-03-2020 21:35:00 5.2 C 46 % -5.45 C
837 25-03-2020 21:40:00 5.2 C 49 % -4.62 C
838 25-03-2020 21:45:00 5 C 50 % -4.54 C
839 25-03-2020 21:50:00 4.7 C 51 % -4.55 C
840 25-03-2020 21:55:00 4.5 C 52 % -4.48 C
841 25-03-2020 22:00:00 4.3 C 54 % -4.17 C
842 25-03-2020 22:05:00 4 C 55 % -4.21 C
843 25-03-2020 22:10:00 3.7 C 56 % -4.25 C
844 25-03-2020 22:15:00 3.4 C 56 % -4.53 C
845 25-03-2020 22:20:00 3.3 C 57 % -4.39 C
846 25-03-2020 22:25:00 3.3 C 57 % -4.39 C
847 25-03-2020 22:30:00 3.1 C 57 % -4.57 C
848 25-03-2020 22:35:00 2.9 C 58 % -4.53 C
849 25-03-2020 22:40:00 2.9 C 58 % -4.53 C
850 25-03-2020 22:45:00 2.8 C 60 % -4.18 C
Sensor: Nr:Datum:Temp:Feuchte:Taupunkt:
Aussen-T/F 851 25-03-2020 22:50:00 2.7 C 59 % -4.49 C
852 25-03-2020 22:55:00 2.6 C 61 % -4.15 C
853 25-03-2020 23:00:00 2.5 C 60 % -4.46 C
854 25-03-2020 23:05:00 2.4 C 61 % -4.34 C
855 25-03-2020 23:10:00 2.3 C 62 % -4.21 C
856 25-03-2020 23:15:00 2.2 C 62 % -4.31 C
857 25-03-2020 23:20:00 2.1 C 62 % -4.4 C
858 25-03-2020 23:25:00 2 C 62 % -4.5 C
859 25-03-2020 23:30:00 1.9 C 63 % -4.38 C
860 25-03-2020 23:35:00 1.8 C 63 % -4.48 C
861 25-03-2020 23:40:00 1.8 C 63 % -4.48 C
862 25-03-2020 23:45:00 1.8 C 63 % -4.48 C
863 25-03-2020 23:50:00 1.7 C 63 % -4.57 C
864 25-03-2020 23:55:00 1.7 C 63 % -4.57 C
865 26-03-2020 00:00:00 1.7 C 63 % -4.57 C
866 26-03-2020 00:05:00 1.6 C 64 % -4.46 C
867 26-03-2020 00:10:00 1.6 C 64 % -4.46 C
868 26-03-2020 00:15:00 1.5 C 64 % -4.55 C
869 26-03-2020 00:20:00 1.4 C 64 % -4.65 C
870 26-03-2020 00:25:00 1.3 C 63 % -4.95 C
871 26-03-2020 00:30:00 1.3 C 64 % -4.74 C
872 26-03-2020 00:35:00 1.2 C 65 % -4.63 C
873 26-03-2020 00:40:00 1.1 C 65 % -4.73 C
874 26-03-2020 00:45:00 1.1 C 66 % -4.53 C
875 26-03-2020 00:50:00 1 C 66 % -4.62 C
Sensor: Nr:Datum:Temp:Feuchte:Taupunkt:
Aussen-T/F 876 26-03-2020 00:55:00 1.1 C 66 % -4.53 C
877 26-03-2020 01:00:00 1.1 C 66 % -4.53 C
878 26-03-2020 01:05:00 1 C 65 % -4.82 C
879 26-03-2020 01:10:00 0.9 C 66 % -4.72 C
880 26-03-2020 01:15:00 0.9 C 65 % -4.92 C
881 26-03-2020 01:20:00 0.8 C 66 % -4.81 C
882 26-03-2020 01:25:00 0.8 C 66 % -4.81 C
883 26-03-2020 01:30:00 0.8 C 66 % -4.81 C
884 26-03-2020 01:35:00 0.8 C 65 % -5.01 C
885 26-03-2020 01:40:00 0.9 C 66 % -4.72 C
886 26-03-2020 01:45:00 0.8 C 64 % -5.22 C
887 26-03-2020 01:50:00 0.9 C 65 % -4.92 C
888 26-03-2020 01:55:00 0.8 C 65 % -5.01 C
889 26-03-2020 02:00:00 0.8 C 66 % -4.81 C
890 26-03-2020 02:05:00 0.7 C 65 % -5.11 C
891 26-03-2020 02:10:00 0.7 C 66 % -4.91 C
892 26-03-2020 02:15:00 0.7 C 65 % -5.11 C
893 26-03-2020 02:20:00 0.7 C 65 % -5.11 C
894 26-03-2020 02:25:00 0.7 C 65 % -5.11 C
895 26-03-2020 02:30:00 0.7 C 66 % -4.91 C
896 26-03-2020 02:35:00 0.6 C 65 % -5.2 C
897 26-03-2020 02:40:00 0.6 C 65 % -5.2 C
898 26-03-2020 02:45:00 0.6 C 65 % -5.2 C
899 26-03-2020 02:50:00 0.6 C 65 % -5.2 C
900 26-03-2020 02:55:00 0.6 C 66 % -5 C
Sensor: Nr:Datum:Temp:Feuchte:Taupunkt:
Aussen-T/F 901 26-03-2020 03:00:00 0.6 C 66 % -5 C
902 26-03-2020 03:05:00 0.6 C 66 % -5 C
903 26-03-2020 03:10:00 0.5 C 66 % -5.1 C
904 26-03-2020 03:15:00 0.4 C 65 % -5.39 C
905 26-03-2020 03:20:00 0.5 C 65 % -5.3 C
906 26-03-2020 03:25:00 0.4 C 66 % -5.19 C
907 26-03-2020 03:30:00 0.4 C 66 % -5.19 C
908 26-03-2020 03:35:00 0.3 C 67 % -5.09 C
909 26-03-2020 03:40:00 0.2 C 67 % -5.19 C
910 26-03-2020 03:45:00 0.2 C 67 % -5.19 C
911 26-03-2020 03:50:00 0.1 C 68 % -5.09 C
912 26-03-2020 03:55:00 0.1 C 68 % -5.09 C
913 26-03-2020 04:00:00 0.1 C 68 % -5.09 C
914 26-03-2020 04:05:00 0.1 C 68 % -5.09 C
915 26-03-2020 04:10:00 0.1 C 67 % -5.28 C
916 26-03-2020 04:15:00 0.1 C 68 % -5.09 C
917 26-03-2020 04:20:00 0.1 C 68 % -5.09 C
918 26-03-2020 04:25:00 0.1 C 69 % -4.9 C
919 26-03-2020 04:30:00 0 C 68 % -5.18 C
920 26-03-2020 04:35:00 -0.1 C 69 % -5.09 C
921 26-03-2020 04:40:00 -0.1 C 68 % -5.29 C
922 26-03-2020 04:45:00 0 C 68 % -5.18 C
923 26-03-2020 04:50:00 0.1 C 69 % -4.9 C
924 26-03-2020 04:55:00 0.1 C 69 % -4.9 C
925 26-03-2020 05:00:00 0.1 C 69 % -4.9 C
Sensor: Nr:Datum:Temp:Feuchte:Taupunkt:
Aussen-T/F 926 26-03-2020 05:05:00 0 C 69 % -4.99 C
927 26-03-2020 05:10:00 0.1 C 68 % -5.09 C
928 26-03-2020 05:15:00 0 C 70 % -4.8 C
929 26-03-2020 05:20:00 -0.1 C 70 % -4.9 C
930 26-03-2020 05:25:00 -0.1 C 70 % -4.9 C
931 26-03-2020 05:30:00 -0.2 C 70 % -5 C
932 26-03-2020 05:35:00 -0.2 C 69 % -5.19 C
933 26-03-2020 05:40:00 -0.1 C 69 % -5.09 C
934 26-03-2020 05:45:00 -0.1 C 70 % -4.9 C
935 26-03-2020 05:50:00 -0.1 C 70 % -4.9 C
936 26-03-2020 05:55:00 -0.1 C 70 % -4.9 C
937 26-03-2020 06:00:00 -0.2 C 70 % -5 C
938 26-03-2020 06:05:00 -0.2 C 69 % -5.19 C
939 26-03-2020 06:10:00 -0.2 C 69 % -5.19 C
940 26-03-2020 06:15:00 -0.2 C 70 % -5 C
941 26-03-2020 06:20:00 -0.3 C 70 % -5.1 C
942 26-03-2020 06:25:00 -0.3 C 70 % -5.1 C
943 26-03-2020 06:30:00 -0.3 C 70 % -5.1 C
944 26-03-2020 06:35:00 -0.4 C 71 % -5.01 C
945 26-03-2020 06:40:00 -0.4 C 71 % -5.01 C
946 26-03-2020 06:45:00 -0.4 C 71 % -5.01 C
947 26-03-2020 06:50:00 -0.4 C 71 % -5.01 C
948 26-03-2020 06:55:00 -0.4 C 72 % -4.82 C
949 26-03-2020 07:00:00 -0.4 C 72 % -4.82 C
950 26-03-2020 07:05:00 -0.4 C 71 % -5.01 C
Sensor: Nr:Datum:Temp:Feuchte:Taupunkt:
Aussen-T/F 951 26-03-2020 07:10:00 -0.4 C 71 % -5.01 C
952 26-03-2020 07:15:00 -0.3 C 71 % -4.91 C
953 26-03-2020 07:20:00 -0.2 C 71 % -4.81 C
954 26-03-2020 07:25:00 -0.1 C 70 % -4.9 C
955 26-03-2020 07:30:00 0.1 C 69 % -4.9 C
956 26-03-2020 07:35:00 0.3 C 68 % -4.9 C
957 26-03-2020 07:40:00 0.8 C 66 % -4.81 C
958 26-03-2020 07:45:00 0.9 C 67 % -4.52 C
959 26-03-2020 07:50:00 1 C 63 % -5.23 C
960 26-03-2020 07:55:00 1.3 C 63 % -4.95 C
961 26-03-2020 08:00:00 1.3 C 65 % -4.54 C
962 26-03-2020 08:05:00 1.3 C 63 % -4.95 C
963 26-03-2020 08:10:00 1.3 C 64 % -4.74 C
964 26-03-2020 08:15:00 1.4 C 63 % -4.86 C
965 26-03-2020 08:20:00 1.5 C 65 % -4.35 C
966 26-03-2020 08:25:00 1.6 C 62 % -4.88 C
967 26-03-2020 08:30:00 2 C 59 % -5.15 C
968 26-03-2020 08:35:00 2.2 C 60 % -4.74 C
969 26-03-2020 08:40:00 2.4 C 58 % -5 C
970 26-03-2020 08:45:00 2.6 C 60 % -4.37 C
971 26-03-2020 08:50:00 2.8 C 56 % -5.09 C
972 26-03-2020 08:55:00 3.1 C 55 % -5.05 C
973 26-03-2020 09:00:00 3.2 C 57 % -4.48 C
974 26-03-2020 09:05:00 3.2 C 54 % -5.19 C
975 26-03-2020 09:10:00 3.3 C 58 % -4.16 C
Sensor: Nr:Datum:Temp:Feuchte:Taupunkt:
Aussen-T/F 976 26-03-2020 09:15:00 3.4 C 58 % -4.06 C
977 26-03-2020 09:20:00 3.5 C 56 % -4.43 C
978 26-03-2020 09:25:00 3.6 C 56 % -4.34 C
979 26-03-2020 09:30:00 3.7 C 54 % -4.73 C
980 26-03-2020 09:35:00 3.8 C 52 % -5.13 C
981 26-03-2020 09:40:00 4.1 C 53 % -4.6 C
982 26-03-2020 09:45:00 4.3 C 52 % -4.67 C
983 26-03-2020 09:50:00 4.6 C 50 % -4.91 C
984 26-03-2020 09:55:00 4.8 C 52 % -4.2 C
985 26-03-2020 10:00:00 4.9 C 50 % -4.63 C
986 26-03-2020 10:05:00 5.1 C 50 % -4.45 C
987 26-03-2020 10:10:00 5.2 C 50 % -4.35 C
988 26-03-2020 10:15:00 5.3 C 49 % -4.53 C
989 26-03-2020 10:20:00 5.4 C 50 % -4.17 C
990 26-03-2020 10:25:00 5.4 C 48 % -4.71 C
991 26-03-2020 10:30:00 5.6 C 48 % -4.53 C
992 26-03-2020 10:35:00 5.8 C 48 % -4.34 C
993 26-03-2020 10:40:00 6 C 49 % -3.89 C
994 26-03-2020 10:45:00 6.1 C 47 % -4.35 C
995 26-03-2020 10:50:00 6.3 C 46 % -4.45 C
996 26-03-2020 10:55:00 6.4 C 46 % -4.36 C
997 26-03-2020 11:00:00 6.5 C 46 % -4.27 C
998 26-03-2020 11:05:00 6.6 C 45 % -4.47 C
999 26-03-2020 11:10:00 6.7 C 45 % -4.37 C
1000 26-03-2020 11:15:00 6.8 C 45 % -4.28 C
Sensor: Nr:Datum:Temp:Feuchte:Taupunkt:
Aussen-T/F 1001 26-03-2020 11:20:00 6.9 C 45 % -4.19 C
1002 26-03-2020 11:25:00 7 C 44 % -4.4 C
1003 26-03-2020 11:30:00 7.1 C 46 % -3.72 C
1004 26-03-2020 11:35:00 7.2 C 44 % -4.22 C
1005 26-03-2020 11:40:00 7.3 C 44 % -4.13 C
1006 26-03-2020 11:45:00 7.3 C 44 % -4.13 C
1007 26-03-2020 11:50:00 7.4 C 44 % -4.04 C
1008 26-03-2020 11:55:00 7.6 C 44 % -3.85 C
1009 26-03-2020 12:00:00 7.7 C 43 % -4.07 C
1010 26-03-2020 12:05:00 7.9 C 43 % -3.89 C
1011 26-03-2020 12:10:00 8.2 C 43 % -3.62 C
1012 26-03-2020 12:15:00 8.3 C 42 % -3.84 C
1013 26-03-2020 12:20:00 8.5 C 42 % -3.66 C
1014 26-03-2020 12:25:00 8.7 C 41 % -3.8 C
1015 26-03-2020 12:30:00 8.8 C 41 % -3.71 C
1016 26-03-2020 12:35:00 8.9 C 40 % -3.95 C
1017 26-03-2020 12:40:00 9 C 41 % -3.53 C
1018 26-03-2020 12:45:00 9.1 C 40 % -3.77 C
1019 26-03-2020 12:50:00 8.9 C 39 % -4.28 C
1020 26-03-2020 12:55:00 8.9 C 40 % -3.95 C
1021 26-03-2020 13:00:00 9.1 C 40 % -3.77 C
1022 26-03-2020 13:05:00 9.2 C 40 % -3.68 C
1023 26-03-2020 13:10:00 9.3 C 40 % -3.59 C
1024 26-03-2020 13:15:00 9.5 C 40 % -3.41 C
1025 26-03-2020 13:20:00 9.7 C 38 % -3.91 C
Sensor: Nr:Datum:Temp:Feuchte:Taupunkt:
Aussen-T/F 1026 26-03-2020 13:25:00 9.7 C 40 % -3.23 C
1027 26-03-2020 13:30:00 9.7 C 39 % -3.57 C
1028 26-03-2020 13:35:00 9.7 C 41 % -2.9 C
1029 26-03-2020 13:40:00 10 C 40 % -2.96 C
1030 26-03-2020 13:45:00 10.2 C 39 % -3.12 C
1031 26-03-2020 13:50:00 10.3 C 38 % -3.38 C
1032 26-03-2020 13:55:00 10.3 C 37 % -3.73 C
1033 26-03-2020 14:00:00 10.4 C 39 % -2.94 C
1034 26-03-2020 14:05:00 10.4 C 39 % -2.94 C
1035 26-03-2020 14:10:00 10.3 C 39 % -3.03 C
1036 26-03-2020 14:15:00 10.3 C 39 % -3.03 C
1037 26-03-2020 14:20:00 10.3 C 40 % -2.69 C
1038 26-03-2020 14:25:00 10.5 C 39 % -2.85 C
1039 26-03-2020 14:30:00 10.6 C 39 % -2.76 C
1040 26-03-2020 14:35:00 10.7 C 38 % -3.02 C
1041 26-03-2020 14:40:00 10.8 C 39 % -2.58 C
1042 26-03-2020 14:45:00 10.7 C 38 % -3.02 C
1043 26-03-2020 14:50:00 10.7 C 39 % -2.67 C
1044 26-03-2020 14:55:00 10.8 C 39 % -2.58 C
1045 26-03-2020 15:00:00 10.9 C 38 % -2.84 C
1046 26-03-2020 15:05:00 10.9 C 38 % -2.84 C
1047 26-03-2020 15:10:00 10.9 C 39 % -2.49 C
1048 26-03-2020 15:15:00 11 C 40 % -2.06 C
1049 26-03-2020 15:20:00 11.2 C 39 % -2.22 C
1050 26-03-2020 15:25:00 11.3 C 39 % -2.13 C
Sensor: Nr:Datum:Temp:Feuchte:Taupunkt:
Aussen-T/F 1051 26-03-2020 15:30:00 11.4 C 38 % -2.39 C
1052 26-03-2020 15:35:00 11.5 C 38 % -2.3 C
1053 26-03-2020 15:40:00 11.6 C 38 % -2.22 C
1054 26-03-2020 15:45:00 11.7 C 38 % -2.13 C
1055 26-03-2020 15:50:00 11.8 C 39 % -1.69 C
1056 26-03-2020 15:55:00 11.8 C 38 % -2.04 C
1057 26-03-2020 16:00:00 11.9 C 40 % -1.25 C
1058 26-03-2020 16:05:00 12.1 C 38 % -1.77 C
1059 26-03-2020 16:10:00 12.2 C 40 % -0.98 C
1060 26-03-2020 16:15:00 11.9 C 38 % -1.95 C
1061 26-03-2020 16:20:00 11.7 C 40 % -1.43 C
1062 26-03-2020 16:25:00 11.5 C 41 % -1.28 C
1063 26-03-2020 16:30:00 11.4 C 41 % -1.37 C
1064 26-03-2020 16:35:00 11.5 C 41 % -1.28 C
1065 26-03-2020 16:40:00 11.8 C 39 % -1.69 C
1066 26-03-2020 16:45:00 12 C 40 % -1.16 C
1067 26-03-2020 16:50:00 12.1 C 41 % -0.74 C
1068 26-03-2020 16:55:00 12.2 C 41 % -0.65 C
1069 26-03-2020 17:00:00 11.8 C 40 % -1.34 C
1070 26-03-2020 17:05:00 11.4 C 41 % -1.37 C
1071 26-03-2020 17:10:00 11.4 C 41 % -1.37 C
1072 26-03-2020 17:15:00 11.2 C 42 % -1.22 C
1073 26-03-2020 17:20:00 11.3 C 42 % -1.13 C
1074 26-03-2020 17:25:00 11.2 C 42 % -1.22 C
1075 26-03-2020 17:30:00 11.2 C 43 % -0.9 C
Sensor: Nr:Datum:Temp:Feuchte:Taupunkt:
Aussen-T/F 1076 26-03-2020 17:35:00 11.3 C 44 % -0.49 C
1077 26-03-2020 17:40:00 11.4 C 42 % -1.04 C
1078 26-03-2020 17:45:00 11.3 C 44 % -0.49 C
1079 26-03-2020 17:50:00 11.2 C 43 % -0.9 C
1080 26-03-2020 17:55:00 11 C 43 % -1.08 C
1081 26-03-2020 18:00:00 11 C 43 % -1.08 C
1082 26-03-2020 18:05:00 11 C 44 % -0.77 C
1083 26-03-2020 18:10:00 11 C 44 % -0.77 C
1084 26-03-2020 18:15:00 10.9 C 43 % -1.17 C
1085 26-03-2020 18:20:00 10.8 C 44 % -0.95 C
1086 26-03-2020 18:25:00 10.8 C 45 % -0.64 C
1087 26-03-2020 18:30:00 10.6 C 46 % -0.52 C
1088 26-03-2020 18:35:00 10.4 C 46 % -0.7 C
1089 26-03-2020 18:40:00 10.2 C 46 % -0.89 C
1090 26-03-2020 18:45:00 10.1 C 49 % -0.11 C
1091 26-03-2020 18:50:00 9.8 C 50 % -0.11 C
1092 26-03-2020 18:55:00 9.6 C 52 % 0.24 C
1093 26-03-2020 19:00:00 9.2 C 53 % 0.13 C
1094 26-03-2020 19:05:00 8.8 C 55 % 0.27 C
1095 26-03-2020 19:10:00 8.4 C 56 % 0.15 C
1096 26-03-2020 19:15:00 8.2 C 57 % 0.2 C
1097 26-03-2020 19:20:00 7.8 C 59 % 0.3 C
1098 26-03-2020 19:25:00 7.5 C 60 % 0.25 C
1099 26-03-2020 19:30:00 7.2 C 61 % 0.2 C
1100 26-03-2020 19:35:00 6.9 C 61 % -0.09 C
Sensor: Nr:Datum:Temp:Feuchte:Taupunkt:
Aussen-T/F 1101 26-03-2020 19:40:00 6.8 C 61 % -0.18 C
1102 26-03-2020 19:45:00 6.7 C 62 % -0.05 C
1103 26-03-2020 19:50:00 6.6 C 63 % 0.07 C
1104 26-03-2020 19:55:00 6.4 C 64 % 0.1 C
1105 26-03-2020 20:00:00 6.3 C 64 % 0 C
1106 26-03-2020 20:05:00 6.2 C 65 % 0.12 C
1107 26-03-2020 20:10:00 6.1 C 65 % 0.03 C
1108 26-03-2020 20:15:00 5.9 C 65 % -0.16 C
1109 26-03-2020 20:20:00 5.8 C 66 % -0.05 C
1110 26-03-2020 20:25:00 5.8 C 66 % -0.05 C
1111 26-03-2020 20:30:00 5.7 C 67 % 0.06 C
1112 26-03-2020 20:35:00 5.6 C 68 % 0.17 C
1113 26-03-2020 20:40:00 5.4 C 68 % -0.02 C
1114 26-03-2020 20:45:00 5.3 C 68 % -0.12 C
1115 26-03-2020 20:50:00 5.2 C 69 % -0.01 C
1116 26-03-2020 20:55:00 5.1 C 69 % -0.11 C
1117 26-03-2020 21:00:00 5.1 C 69 % -0.11 C
1118 26-03-2020 21:05:00 5.1 C 69 % -0.11 C
1119 26-03-2020 21:10:00 4.9 C 69 % -0.3 C
1120 26-03-2020 21:15:00 4.9 C 70 % -0.1 C
1121 26-03-2020 21:20:00 4.8 C 70 % -0.2 C
1122 26-03-2020 21:25:00 4.7 C 71 % -0.1 C
1123 26-03-2020 21:30:00 4.6 C 71 % -0.19 C
1124 26-03-2020 21:35:00 4.5 C 72 % -0.1 C
1125 26-03-2020 21:40:00 4.5 C 72 % -0.1 C
Sensor: Nr:Datum:Temp:Feuchte:Taupunkt:
Aussen-T/F 1126 26-03-2020 21:45:00 4.5 C 72 % -0.1 C
1127 26-03-2020 21:50:00 4.5 C 72 % -0.1 C
1128 26-03-2020 21:55:00 4.4 C 73 % 0 C
1129 26-03-2020 22:00:00 4.4 C 73 % 0 C
1130 26-03-2020 22:05:00 4.4 C 73 % 0 C
1131 26-03-2020 22:10:00 4.3 C 73 % -0.1 C
1132 26-03-2020 22:15:00 4.3 C 73 % -0.1 C
1133 26-03-2020 22:20:00 4.3 C 73 % -0.1 C
1134 26-03-2020 22:25:00 4.3 C 73 % -0.1 C
1135 26-03-2020 22:30:00 4.3 C 73 % -0.1 C
1136 26-03-2020 22:35:00 4.3 C 73 % -0.1 C
1137 26-03-2020 22:40:00 4.2 C 73 % -0.2 C
1138 26-03-2020 22:45:00 4.2 C 74 % -0.01 C
1139 26-03-2020 22:50:00 4.2 C 74 % -0.01 C
1140 26-03-2020 22:55:00 4.2 C 74 % -0.01 C
1141 26-03-2020 23:00:00 4.2 C 74 % -0.01 C
1142 26-03-2020 23:05:00 4.2 C 74 % -0.01 C
1143 26-03-2020 23:10:00 4.2 C 74 % -0.01 C
1144 26-03-2020 23:15:00 4.1 C 74 % -0.11 C
1145 26-03-2020 23:20:00 4.1 C 74 % -0.11 C
1146 26-03-2020 23:25:00 4.1 C 74 % -0.11 C
1147 26-03-2020 23:30:00 4.1 C 74 % -0.11 C
1148 26-03-2020 23:35:00 4 C 74 % -0.2 C
1149 26-03-2020 23:40:00 4.1 C 75 % 0.08 C
1150 26-03-2020 23:45:00 4 C 75 % -0.02 C
Sensor: Nr:Datum:Temp:Feuchte:Taupunkt:
Aussen-T/F 1151 26-03-2020 23:50:00 4 C 75 % -0.02 C
1152 26-03-2020 23:55:00 4 C 75 % -0.02 C
1153 27-03-2020 00:00:00 4 C 75 % -0.02 C
1154 27-03-2020 00:05:00 3.9 C 75 % -0.12 C
1155 27-03-2020 00:10:00 3.9 C 75 % -0.12 C
1156 27-03-2020 00:15:00 3.8 C 75 % -0.21 C
1157 27-03-2020 00:20:00 3.8 C 75 % -0.21 C
1158 27-03-2020 00:25:00 3.8 C 76 % -0.03 C
1159 27-03-2020 00:30:00 3.8 C 76 % -0.03 C
1160 27-03-2020 00:35:00 3.8 C 76 % -0.03 C
1161 27-03-2020 00:40:00 3.8 C 76 % -0.03 C
1162 27-03-2020 00:45:00 3.8 C 76 % -0.03 C
1163 27-03-2020 00:50:00 3.8 C 76 % -0.03 C
1164 27-03-2020 00:55:00 3.7 C 77 % 0.05 C
1165 27-03-2020 01:00:00 3.7 C 76 % -0.13 C
1166 27-03-2020 01:05:00 3.5 C 77 % -0.14 C
1167 27-03-2020 01:10:00 3.3 C 77 % -0.34 C
1168 27-03-2020 01:15:00 3.2 C 78 % -0.26 C
1169 27-03-2020 01:20:00 3.2 C 78 % -0.26 C
1170 27-03-2020 01:25:00 3.1 C 79 % -0.18 C
1171 27-03-2020 01:30:00 3.1 C 79 % -0.18 C
1172 27-03-2020 01:35:00 3.1 C 79 % -0.18 C
1173 27-03-2020 01:40:00 3.2 C 79 % -0.08 C
1174 27-03-2020 01:45:00 3.2 C 79 % -0.08 C
1175 27-03-2020 01:50:00 3.1 C 79 % -0.18 C
Sensor: Nr:Datum:Temp:Feuchte:Taupunkt:
Aussen-T/F 1176 27-03-2020 01:55:00 3.2 C 79 % -0.08 C
1177 27-03-2020 02:00:00 3.1 C 79 % -0.18 C
1178 27-03-2020 02:05:00 3.1 C 79 % -0.18 C
1179 27-03-2020 02:10:00 3.1 C 79 % -0.18 C
1180 27-03-2020 02:15:00 3 C 79 % -0.28 C
1181 27-03-2020 02:20:00 3 C 79 % -0.28 C
1182 27-03-2020 02:25:00 3 C 79 % -0.28 C
1183 27-03-2020 02:30:00 2.9 C 79 % -0.37 C
1184 27-03-2020 02:35:00 2.8 C 80 % -0.3 C
1185 27-03-2020 02:40:00 2.8 C 80 % -0.3 C
1186 27-03-2020 02:45:00 2.8 C 79 % -0.47 C
1187 27-03-2020 02:50:00 2.7 C 79 % -0.57 C
1188 27-03-2020 02:55:00 2.7 C 79 % -0.57 C
1189 27-03-2020 03:00:00 2.7 C 79 % -0.57 C
1190 27-03-2020 03:05:00 2.6 C 80 % -0.49 C
1191 27-03-2020 03:10:00 2.6 C 80 % -0.49 C
1192 27-03-2020 03:15:00 2.5 C 80 % -0.59 C
1193 27-03-2020 03:20:00 2.4 C 80 % -0.69 C
1194 27-03-2020 03:25:00 2.4 C 80 % -0.69 C
1195 27-03-2020 03:30:00 2.4 C 80 % -0.69 C
1196 27-03-2020 03:35:00 2.4 C 80 % -0.69 C
1197 27-03-2020 03:40:00 2.3 C 80 % -0.79 C
1198 27-03-2020 03:45:00 2.3 C 81 % -0.62 C
1199 27-03-2020 03:50:00 2.3 C 81 % -0.62 C
1200 27-03-2020 03:55:00 2.3 C 81 % -0.62 C
Sensor: Nr:Datum:Temp:Feuchte:Taupunkt:
Aussen-T/F 1201 27-03-2020 04:00:00 2.3 C 81 % -0.62 C
1202 27-03-2020 04:05:00 2.3 C 81 % -0.62 C
1203 27-03-2020 04:10:00 2.4 C 81 % -0.52 C
1204 27-03-2020 04:15:00 2.4 C 81 % -0.52 C
1205 27-03-2020 04:20:00 2.3 C 81 % -0.62 C
1206 27-03-2020 04:25:00 2.2 C 80 % -0.88 C
1207 27-03-2020 04:30:00 2.1 C 81 % -0.81 C
1208 27-03-2020 04:35:00 1.9 C 81 % -1.01 C
1209 27-03-2020 04:40:00 1.9 C 81 % -1.01 C
1210 27-03-2020 04:45:00 1.8 C 82 % -0.94 C
1211 27-03-2020 04:50:00 1.8 C 82 % -0.94 C
1212 27-03-2020 04:55:00 1.8 C 82 % -0.94 C
1213 27-03-2020 05:00:00 1.8 C 82 % -0.94 C
1214 27-03-2020 05:05:00 1.7 C 82 % -1.03 C
1215 27-03-2020 05:10:00 1.7 C 82 % -1.03 C
1216 27-03-2020 05:15:00 1.7 C 82 % -1.03 C
1217 27-03-2020 05:20:00 1.6 C 82 % -1.13 C
1218 27-03-2020 05:25:00 1.4 C 83 % -1.16 C
1219 27-03-2020 05:30:00 1.3 C 83 % -1.26 C
1220 27-03-2020 05:35:00 1.2 C 84 % -1.2 C
1221 27-03-2020 05:40:00 1.1 C 84 % -1.29 C
1222 27-03-2020 05:45:00 1.1 C 84 % -1.29 C
1223 27-03-2020 05:50:00 1.1 C 84 % -1.29 C
1224 27-03-2020 05:55:00 1 C 84 % -1.39 C
1225 27-03-2020 06:00:00 0.9 C 85 % -1.33 C
Sensor: Nr:Datum:Temp:Feuchte:Taupunkt:
Aussen-T/F 1226 27-03-2020 06:05:00 0.8 C 85 % -1.43 C
1227 27-03-2020 06:10:00 0.8 C 85 % -1.43 C
1228 27-03-2020 06:15:00 0.7 C 86 % -1.37 C
1229 27-03-2020 06:20:00 0.8 C 86 % -1.27 C
1230 27-03-2020 06:25:00 0.8 C 86 % -1.27 C
1231 27-03-2020 06:30:00 0.8 C 86 % -1.27 C
1232 27-03-2020 06:35:00 0.7 C 86 % -1.37 C
1233 27-03-2020 06:40:00 0.7 C 86 % -1.37 C
1234 27-03-2020 06:45:00 0.7 C 86 % -1.37 C
1235 27-03-2020 06:50:00 0.6 C 86 % -1.46 C
1236 27-03-2020 06:55:00 0.6 C 87 % -1.31 C
1237 27-03-2020 07:00:00 0.6 C 87 % -1.31 C
1238 27-03-2020 07:05:00 0.7 C 87 % -1.21 C
1239 27-03-2020 07:10:00 0.7 C 87 % -1.21 C
1240 27-03-2020 07:15:00 0.8 C 88 % -0.96 C
1241 27-03-2020 07:20:00 0.9 C 88 % -0.86 C
1242 27-03-2020 07:25:00 1 C 88 % -0.76 C
1243 27-03-2020 07:30:00 1.1 C 88 % -0.66 C
1244 27-03-2020 07:35:00 1.1 C 87 % -0.82 C
1245 27-03-2020 07:40:00 1.2 C 87 % -0.72 C
1246 27-03-2020 07:45:00 1.3 C 87 % -0.62 C
1247 27-03-2020 07:50:00 1.4 C 87 % -0.52 C
1248 27-03-2020 07:55:00 1.5 C 87 % -0.42 C
1249 27-03-2020 08:00:00 1.6 C 87 % -0.32 C
1250 27-03-2020 08:05:00 1.7 C 87 % -0.23 C
Sensor: Nr:Datum:Temp:Feuchte:Taupunkt:
Aussen-T/F 1251 27-03-2020 08:10:00 1.8 C 87 % -0.13 C
1252 27-03-2020 08:15:00 1.9 C 86 % -0.19 C
1253 27-03-2020 08:20:00 1.9 C 86 % -0.19 C
1254 27-03-2020 08:25:00 2.1 C 86 % 0.01 C
1255 27-03-2020 08:30:00 2.2 C 86 % 0.11 C
1256 27-03-2020 08:35:00 2.2 C 86 % 0.11 C
1257 27-03-2020 08:40:00 2.3 C 86 % 0.21 C
1258 27-03-2020 08:45:00 2.3 C 86 % 0.21 C
1259 27-03-2020 08:50:00 2.5 C 86 % 0.4 C
1260 27-03-2020 08:55:00 2.7 C 85 % 0.44 C
1261 27-03-2020 09:00:00 2.9 C 84 % 0.47 C
1262 27-03-2020 09:05:00 3.1 C 84 % 0.67 C
1263 27-03-2020 09:10:00 3.2 C 83 % 0.6 C
1264 27-03-2020 09:15:00 3.4 C 82 % 0.63 C
1265 27-03-2020 09:20:00 3.6 C 82 % 0.82 C
1266 27-03-2020 09:25:00 3.8 C 81 % 0.85 C
1267 27-03-2020 09:30:00 4 C 81 % 1.04 C
1268 27-03-2020 09:35:00 4.2 C 80 % 1.07 C
1269 27-03-2020 09:40:00 4.3 C 79 % 0.99 C
1270 27-03-2020 09:45:00 4.6 C 80 % 1.46 C
1271 27-03-2020 09:50:00 4.9 C 79 % 1.57 C
1272 27-03-2020 09:55:00 5.2 C 78 % 1.69 C
1273 27-03-2020 10:00:00 5.6 C 75 % 1.53 C
1274 27-03-2020 10:05:00 6 C 75 % 1.91 C
1275 27-03-2020 10:10:00 6.3 C 74 % 2.02 C
Sensor: Nr:Datum:Temp:Feuchte:Taupunkt:
Aussen-T/F 1276 27-03-2020 10:15:00 6.6 C 71 % 1.73 C
1277 27-03-2020 10:20:00 6.8 C 72 % 2.12 C
1278 27-03-2020 10:25:00 7.1 C 67 % 1.4 C
1279 27-03-2020 10:30:00 7.3 C 67 % 1.59 C
1280 27-03-2020 10:35:00 7.6 C 65 % 1.45 C
1281 27-03-2020 10:40:00 7.9 C 63 % 1.3 C
1282 27-03-2020 10:45:00 8.3 C 63 % 1.68 C
1283 27-03-2020 10:50:00 8.6 C 64 % 2.19 C
1284 27-03-2020 10:55:00 8.8 C 61 % 1.71 C
1285 27-03-2020 11:00:00 9.2 C 60 % 1.85 C
1286 27-03-2020 11:05:00 9.6 C 58 % 1.75 C
1287 27-03-2020 11:10:00 9.8 C 57 % 1.7 C
1288 27-03-2020 11:15:00 10.2 C 56 % 1.83 C
1289 27-03-2020 11:20:00 10.6 C 55 % 1.95 C
1290 27-03-2020 11:25:00 10.8 C 53 % 1.62 C
1291 27-03-2020 11:30:00 11.1 C 52 % 1.63 C
1292 27-03-2020 11:35:00 11.3 C 52 % 1.81 C
1293 27-03-2020 11:40:00 11.7 C 51 % 1.91 C
1294 27-03-2020 11:45:00 12.1 C 49 % 1.72 C
1295 27-03-2020 11:50:00 12.3 C 48 % 1.62 C
1296 27-03-2020 11:55:00 12.4 C 47 % 1.42 C
1297 27-03-2020 12:00:00 12.7 C 48 % 1.99 C
1298 27-03-2020 12:05:00 12.8 C 46 % 1.48 C
1299 27-03-2020 12:10:00 13 C 47 % 1.97 C
1300 27-03-2020 12:15:00 13.2 C 46 % 1.85 C
Sensor: Nr:Datum:Temp:Feuchte:Taupunkt:
Aussen-T/F 1301 27-03-2020 12:20:00 13.3 C 46 % 1.94 C
1302 27-03-2020 12:25:00 13.3 C 45 % 1.63 C
1303 27-03-2020 12:30:00 13.4 C 46 % 2.03 C
1304 27-03-2020 12:35:00 13.6 C 46 % 2.21 C
1305 27-03-2020 12:40:00 13.7 C 44 % 1.68 C
1306 27-03-2020 12:45:00 13.7 C 44 % 1.68 C
1307 27-03-2020 12:50:00 13.8 C 45 % 2.09 C
1308 27-03-2020 12:55:00 13.9 C 45 % 2.18 C
1309 27-03-2020 13:00:00 14.2 C 45 % 2.45 C
1310 27-03-2020 13:05:00 14.3 C 43 % 1.91 C
1311 27-03-2020 13:10:00 14.3 C 44 % 2.23 C
1312 27-03-2020 13:15:00 14.6 C 44 % 2.5 C
1313 27-03-2020 13:20:00 14.7 C 43 % 2.27 C
1314 27-03-2020 13:25:00 14.8 C 43 % 2.36 C
1315 27-03-2020 13:30:00 14.9 C 44 % 2.77 C
1316 27-03-2020 13:35:00 15 C 42 % 2.21 C
1317 27-03-2020 13:40:00 15.1 C 43 % 2.63 C
1318 27-03-2020 13:45:00 15.1 C 42 % 2.3 C
1319 27-03-2020 13:50:00 15.1 C 42 % 2.3 C
1320 27-03-2020 13:55:00 15.1 C 44 % 2.95 C
1321 27-03-2020 14:00:00 15.3 C 42 % 2.48 C
1322 27-03-2020 14:05:00 15.4 C 42 % 2.57 C
1323 27-03-2020 14:10:00 15.4 C 42 % 2.57 C
1324 27-03-2020 14:15:00 15.4 C 42 % 2.57 C
1325 27-03-2020 14:20:00 15.4 C 42 % 2.57 C
Sensor: Nr:Datum:Temp:Feuchte:Taupunkt:
Aussen-T/F 1326 27-03-2020 14:25:00 15.5 C 42 % 2.66 C
1327 27-03-2020 14:30:00 15.5 C 43 % 2.99 C
1328 27-03-2020 14:35:00 15.6 C 42 % 2.75 C
1329 27-03-2020 14:40:00 15.4 C 41 % 2.23 C
1330 27-03-2020 14:45:00 15.3 C 42 % 2.48 C
1331 27-03-2020 14:50:00 15.4 C 42 % 2.57 C
1332 27-03-2020 14:55:00 15.5 C 42 % 2.66 C
1333 27-03-2020 15:00:00 15.5 C 42 % 2.66 C
1334 27-03-2020 15:05:00 15.6 C 43 % 3.08 C
1335 27-03-2020 15:10:00 15.8 C 42 % 2.93 C
1336 27-03-2020 15:15:00 15.8 C 42 % 2.93 C
1337 27-03-2020 15:20:00 15.9 C 41 % 2.68 C
1338 27-03-2020 15:25:00 15.8 C 41 % 2.59 C
1339 27-03-2020 15:30:00 15.8 C 42 % 2.93 C
1340 27-03-2020 15:35:00 16 C 42 % 3.11 C
1341 27-03-2020 15:40:00 16.1 C 42 % 3.2 C
1342 27-03-2020 15:45:00 16.1 C 41 % 2.86 C
1343 27-03-2020 15:50:00 16.1 C 42 % 3.2 C
1344 27-03-2020 15:55:00 16.2 C 41 % 2.95 C
1345 27-03-2020 16:00:00 16.3 C 41 % 3.04 C
1346 27-03-2020 16:05:00 16.3 C 41 % 3.04 C
1347 27-03-2020 16:10:00 16.4 C 41 % 3.13 C
1348 27-03-2020 16:15:00 16.6 C 40 % 2.96 C
1349 27-03-2020 16:20:00 16.7 C 40 % 3.05 C
1350 27-03-2020 16:25:00 16.7 C 41 % 3.4 C
Sensor: Nr:Datum:Temp:Feuchte:Taupunkt:
Aussen-T/F 1351 27-03-2020 16:30:00 16.7 C 41 % 3.4 C
1352 27-03-2020 16:35:00 16.9 C 40 % 3.23 C
1353 27-03-2020 16:40:00 17 C 40 % 3.32 C
1354 27-03-2020 16:45:00 16.7 C 40 % 3.05 C
1355 27-03-2020 16:50:00 16.7 C 40 % 3.05 C
1356 27-03-2020 16:55:00 16.8 C 40 % 3.14 C
1357 27-03-2020 17:00:00 16.7 C 40 % 3.05 C
1358 27-03-2020 17:05:00 16.7 C 40 % 3.05 C
1359 27-03-2020 17:10:00 16.6 C 40 % 2.96 C
1360 27-03-2020 17:15:00 16.7 C 40 % 3.05 C
1361 27-03-2020 17:20:00 16.7 C 40 % 3.05 C
1362 27-03-2020 17:25:00 16.5 C 40 % 2.87 C
1363 27-03-2020 17:30:00 16.4 C 40 % 2.78 C
1364 27-03-2020 17:35:00 16.5 C 41 % 3.22 C
1365 27-03-2020 17:40:00 16.5 C 41 % 3.22 C
1366 27-03-2020 17:45:00 16.4 C 40 % 2.78 C
1367 27-03-2020 17:50:00 16.3 C 41 % 3.04 C
1368 27-03-2020 17:55:00 16.3 C 43 % 3.71 C
1369 27-03-2020 18:00:00 16.3 C 42 % 3.38 C
1370 27-03-2020 18:05:00 16.2 C 43 % 3.62 C
1371 27-03-2020 18:10:00 16.1 C 45 % 4.18 C
1372 27-03-2020 18:15:00 15.9 C 46 % 4.31 C
1373 27-03-2020 18:20:00 15.7 C 47 % 4.43 C
1374 27-03-2020 18:25:00 15.3 C 49 % 4.66 C
1375 27-03-2020 18:30:00 14.9 C 50 % 4.58 C
Sensor: Nr:Datum:Temp:Feuchte:Taupunkt:
Aussen-T/F 1376 27-03-2020 18:35:00 14.5 C 52 % 4.77 C
1377 27-03-2020 18:40:00 14.1 C 53 % 4.68 C
1378 27-03-2020 18:45:00 13.6 C 54 % 4.48 C
1379 27-03-2020 18:50:00 13.2 C 55 % 4.37 C
1380 27-03-2020 18:55:00 12.7 C 56 % 4.16 C
1381 27-03-2020 19:00:00 12.3 C 57 % 4.04 C
1382 27-03-2020 19:05:00 11.9 C 58 % 3.91 C
1383 27-03-2020 19:10:00 11.6 C 59 % 3.87 C
1384 27-03-2020 19:15:00 11.4 C 60 % 3.92 C
1385 27-03-2020 19:20:00 11.2 C 60 % 3.73 C
1386 27-03-2020 19:25:00 11.1 C 61 % 3.87 C
1387 27-03-2020 19:30:00 10.8 C 61 % 3.59 C
1388 27-03-2020 19:35:00 10.7 C 62 % 3.73 C
1389 27-03-2020 19:40:00 10.6 C 62 % 3.63 C
1390 27-03-2020 19:45:00 10.4 C 63 % 3.67 C
1391 27-03-2020 19:50:00 10.3 C 63 % 3.58 C
1392 27-03-2020 19:55:00 10.3 C 64 % 3.8 C
1393 27-03-2020 20:00:00 10.2 C 64 % 3.7 C
1394 27-03-2020 20:05:00 10.1 C 65 % 3.83 C
1395 27-03-2020 20:10:00 9.9 C 66 % 3.86 C
1396 27-03-2020 20:15:00 9.8 C 66 % 3.76 C
1397 27-03-2020 20:20:00 9.6 C 67 % 3.78 C
1398 27-03-2020 20:25:00 9.4 C 68 % 3.8 C
1399 27-03-2020 20:30:00 9.3 C 68 % 3.71 C
1400 27-03-2020 20:35:00 9.2 C 68 % 3.61 C
Sensor: Nr:Datum:Temp:Feuchte:Taupunkt:
Aussen-T/F 1401 27-03-2020 20:40:00 9.1 C 69 % 3.72 C
1402 27-03-2020 20:45:00 9.1 C 69 % 3.72 C
1403 27-03-2020 20:50:00 9 C 70 % 3.83 C
1404 27-03-2020 20:55:00 8.9 C 71 % 3.94 C
1405 27-03-2020 21:00:00 8.8 C 70 % 3.64 C
1406 27-03-2020 21:05:00 8.8 C 71 % 3.84 C
1407 27-03-2020 21:10:00 8.7 C 72 % 3.94 C
1408 27-03-2020 21:15:00 8.4 C 72 % 3.65 C
1409 27-03-2020 21:20:00 8.2 C 73 % 3.66 C
1410 27-03-2020 21:25:00 7.9 C 73 % 3.37 C
1411 27-03-2020 21:30:00 7.7 C 74 % 3.37 C
1412 27-03-2020 21:35:00 7.6 C 73 % 3.08 C
1413 27-03-2020 21:40:00 7.4 C 75 % 3.27 C
1414 27-03-2020 21:45:00 7.3 C 76 % 3.36 C
1415 27-03-2020 21:50:00 7.3 C 76 % 3.36 C
1416 27-03-2020 21:55:00 7.2 C 76 % 3.26 C
1417 27-03-2020 22:00:00 7.1 C 76 % 3.16 C
1418 27-03-2020 22:05:00 7 C 77 % 3.25 C
1419 27-03-2020 22:10:00 6.9 C 77 % 3.16 C
1420 27-03-2020 22:15:00 6.9 C 77 % 3.16 C
1421 27-03-2020 22:20:00 6.8 C 77 % 3.06 C
1422 27-03-2020 22:25:00 6.8 C 77 % 3.06 C
1423 27-03-2020 22:30:00 6.7 C 77 % 2.96 C
1424 27-03-2020 22:35:00 6.6 C 78 % 3.05 C
1425 27-03-2020 22:40:00 6.5 C 78 % 2.95 C
Sensor: Nr:Datum:Temp:Feuchte:Taupunkt:
Aussen-T/F 1426 27-03-2020 22:45:00 6.4 C 78 % 2.85 C
1427 27-03-2020 22:50:00 6.3 C 79 % 2.93 C
1428 27-03-2020 22:55:00 6.2 C 80 % 3.01 C
1429 27-03-2020 23:00:00 6.1 C 80 % 2.92 C
1430 27-03-2020 23:05:00 6.1 C 80 % 2.92 C
1431 27-03-2020 23:10:00 6 C 81 % 2.99 C
1432 27-03-2020 23:15:00 6.1 C 81 % 3.09 C
1433 27-03-2020 23:20:00 6 C 81 % 2.99 C
1434 27-03-2020 23:25:00 6 C 81 % 2.99 C
1435 27-03-2020 23:30:00 6 C 81 % 2.99 C
1436 27-03-2020 23:35:00 6 C 80 % 2.82 C
1437 27-03-2020 23:40:00 5.9 C 80 % 2.72 C
1438 27-03-2020 23:45:00 5.9 C 80 % 2.72 C
1439 27-03-2020 23:50:00 5.8 C 81 % 2.8 C
1440 27-03-2020 23:55:00 5.8 C 81 % 2.8 C
1441 28-03-2020 00:00:00 5.8 C 81 % 2.8 C
1442 28-03-2020 00:05:00 5.7 C 82 % 2.87 C
1443 28-03-2020 00:10:00 5.7 C 82 % 2.87 C
1444 28-03-2020 00:15:00 5.6 C 82 % 2.78 C
1445 28-03-2020 00:20:00 5.6 C 83 % 2.95 C
1446 28-03-2020 00:25:00 5.6 C 83 % 2.95 C
1447 28-03-2020 00:30:00 5.6 C 83 % 2.95 C
1448 28-03-2020 00:35:00 5.7 C 83 % 3.04 C
1449 28-03-2020 00:40:00 5.7 C 82 % 2.87 C
1450 28-03-2020 00:45:00 5.7 C 82 % 2.87 C
Sensor: Nr:Datum:Temp:Feuchte:Taupunkt:
Aussen-T/F 1451 28-03-2020 00:50:00 5.7 C 82 % 2.87 C
1452 28-03-2020 00:55:00 5.6 C 82 % 2.78 C
1453 28-03-2020 01:00:00 5.6 C 82 % 2.78 C
1454 28-03-2020 01:05:00 5.4 C 82 % 2.58 C
1455 28-03-2020 01:10:00 5.4 C 83 % 2.75 C
1456 28-03-2020 01:15:00 5.3 C 83 % 2.65 C
1457 28-03-2020 01:20:00 5.2 C 83 % 2.56 C
1458 28-03-2020 01:25:00 5.1 C 83 % 2.46 C
1459 28-03-2020 01:30:00 5 C 84 % 2.53 C
1460 28-03-2020 01:35:00 4.9 C 84 % 2.43 C
1461 28-03-2020 01:40:00 4.8 C 84 % 2.33 C
1462 28-03-2020 01:45:00 4.8 C 84 % 2.33 C
1463 28-03-2020 01:50:00 4.7 C 85 % 2.4 C
1464 28-03-2020 01:55:00 4.7 C 85 % 2.4 C
1465 28-03-2020 02:00:00 4.6 C 85 % 2.3 C
1466 28-03-2020 02:05:00 4.5 C 85 % 2.2 C
1467 28-03-2020 02:10:00 4.4 C 85 % 2.11 C
1468 28-03-2020 02:15:00 4.3 C 85 % 2.01 C
1469 28-03-2020 02:20:00 4.3 C 86 % 2.17 C
1470 28-03-2020 02:25:00 4.3 C 86 % 2.17 C
1471 28-03-2020 02:30:00 4.2 C 87 % 2.23 C
1472 28-03-2020 02:35:00 4.3 C 87 % 2.33 C
1473 28-03-2020 02:40:00 4.3 C 87 % 2.33 C
1474 28-03-2020 02:45:00 4.3 C 87 % 2.33 C
1475 28-03-2020 02:50:00 4.3 C 87 % 2.33 C
Sensor: Nr:Datum:Temp:Feuchte:Taupunkt:
Aussen-T/F 1476 28-03-2020 02:55:00 4.3 C 86 % 2.17 C
1477 28-03-2020 03:00:00 4.2 C 86 % 2.07 C
1478 28-03-2020 03:05:00 4.2 C 87 % 2.23 C
1479 28-03-2020 03:10:00 4.1 C 87 % 2.14 C
1480 28-03-2020 03:15:00 4.1 C 87 % 2.14 C
1481 28-03-2020 03:20:00 3.9 C 87 % 1.94 C
1482 28-03-2020 03:25:00 3.9 C 87 % 1.94 C
1483 28-03-2020 03:30:00 3.8 C 87 % 1.84 C
1484 28-03-2020 03:35:00 3.7 C 87 % 1.74 C
1485 28-03-2020 03:40:00 3.5 C 87 % 1.55 C
1486 28-03-2020 03:45:00 3.3 C 87 % 1.35 C
1487 28-03-2020 03:50:00 3.2 C 88 % 1.41 C
1488 28-03-2020 03:55:00 3.1 C 88 % 1.31 C
1489 28-03-2020 04:00:00 3 C 88 % 1.21 C
1490 28-03-2020 04:05:00 2.9 C 89 % 1.27 C
1491 28-03-2020 04:10:00 3 C 89 % 1.37 C
1492 28-03-2020 04:15:00 3 C 89 % 1.37 C
1493 28-03-2020 04:20:00 2.9 C 89 % 1.27 C
1494 28-03-2020 04:25:00 2.8 C 89 % 1.17 C
1495 28-03-2020 04:30:00 2.7 C 89 % 1.07 C
1496 28-03-2020 04:35:00 2.7 C 89 % 1.07 C
1497 28-03-2020 04:40:00 2.6 C 90 % 1.13 C
1498 28-03-2020 04:45:00 2.5 C 90 % 1.03 C
1499 28-03-2020 04:50:00 2.6 C 90 % 1.13 C
1500 28-03-2020 04:55:00 2.6 C 91 % 1.28 C
Sensor: Nr:Datum:Temp:Feuchte:Taupunkt:
Aussen-T/F 1501 28-03-2020 05:00:00 2.7 C 91 % 1.38 C
1502 28-03-2020 05:05:00 2.6 C 91 % 1.28 C
1503 28-03-2020 05:10:00 2.6 C 91 % 1.28 C
1504 28-03-2020 05:15:00 2.6 C 91 % 1.28 C
1505 28-03-2020 05:20:00 2.4 C 90 % 0.93 C
1506 28-03-2020 05:25:00 2.3 C 90 % 0.83 C
1507 28-03-2020 05:30:00 2.2 C 90 % 0.73 C
1508 28-03-2020 05:35:00 2.1 C 91 % 0.79 C
1509 28-03-2020 05:40:00 2.1 C 91 % 0.79 C
1510 28-03-2020 05:45:00 2 C 91 % 0.69 C
1511 28-03-2020 05:50:00 2.1 C 91 % 0.79 C
1512 28-03-2020 05:55:00 2.1 C 92 % 0.94 C
1513 28-03-2020 06:00:00 2.1 C 92 % 0.94 C
1514 28-03-2020 06:05:00 2 C 92 % 0.84 C
1515 28-03-2020 06:10:00 1.9 C 91 % 0.59 C
1516 28-03-2020 06:15:00 1.9 C 92 % 0.74 C
1517 28-03-2020 06:20:00 1.9 C 92 % 0.74 C
1518 28-03-2020 06:25:00 1.8 C 92 % 0.64 C
1519 28-03-2020 06:30:00 1.8 C 92 % 0.64 C
1520 28-03-2020 06:35:00 1.8 C 92 % 0.64 C
1521 28-03-2020 06:40:00 1.8 C 92 % 0.64 C
1522 28-03-2020 06:45:00 1.8 C 92 % 0.64 C
1523 28-03-2020 06:50:00 1.8 C 92 % 0.64 C
1524 28-03-2020 06:55:00 1.8 C 93 % 0.79 C
1525 28-03-2020 07:00:00 1.9 C 93 % 0.89 C
Sensor: Nr:Datum:Temp:Feuchte:Taupunkt:
Aussen-T/F 1526 28-03-2020 07:05:00 2 C 93 % 0.99 C
1527 28-03-2020 07:10:00 2.1 C 93 % 1.09 C
1528 28-03-2020 07:15:00 2.3 C 94 % 1.44 C
1529 28-03-2020 07:20:00 2.4 C 93 % 1.39 C
1530 28-03-2020 07:25:00 2.5 C 93 % 1.49 C
1531 28-03-2020 07:30:00 2.6 C 93 % 1.59 C
1532 28-03-2020 07:35:00 2.6 C 93 % 1.59 C
1533 28-03-2020 07:40:00 2.6 C 93 % 1.59 C
1534 28-03-2020 07:45:00 2.6 C 93 % 1.59 C
1535 28-03-2020 07:50:00 2.7 C 93 % 1.68 C
1536 28-03-2020 07:55:00 2.7 C 93 % 1.68 C
1537 28-03-2020 08:00:00 2.8 C 93 % 1.78 C
1538 28-03-2020 08:05:00 2.8 C 93 % 1.78 C
1539 28-03-2020 08:10:00 2.9 C 93 % 1.88 C
1540 28-03-2020 08:15:00 3 C 93 % 1.98 C
1541 28-03-2020 08:20:00 3.2 C 93 % 2.18 C
1542 28-03-2020 08:25:00 3.3 C 93 % 2.28 C
1543 28-03-2020 08:30:00 3.4 C 93 % 2.38 C
1544 28-03-2020 08:35:00 3.6 C 93 % 2.58 C
1545 28-03-2020 08:40:00 3.7 C 93 % 2.68 C
1546 28-03-2020 08:45:00 3.9 C 93 % 2.87 C
1547 28-03-2020 08:50:00 4.1 C 93 % 3.07 C
1548 28-03-2020 08:55:00 4.2 C 93 % 3.17 C
1549 28-03-2020 09:00:00 4.5 C 93 % 3.47 C
1550 28-03-2020 09:05:00 4.7 C 93 % 3.67 C
Sensor: Nr:Datum:Temp:Feuchte:Taupunkt:
Aussen-T/F 1551 28-03-2020 09:10:00 5 C 93 % 3.96 C
1552 28-03-2020 09:15:00 5.3 C 93 % 4.26 C
1553 28-03-2020 09:20:00 5.6 C 92 % 4.41 C
1554 28-03-2020 09:25:00 5.8 C 92 % 4.6 C
1555 28-03-2020 09:30:00 6.2 C 91 % 4.84 C
1556 28-03-2020 09:35:00 6.4 C 90 % 4.88 C
1557 28-03-2020 09:40:00 6.8 C 89 % 5.12 C
1558 28-03-2020 09:45:00 7.1 C 88 % 5.25 C
1559 28-03-2020 09:50:00 7.4 C 86 % 5.22 C
1560 28-03-2020 09:55:00 7.8 C 85 % 5.44 C
1561 28-03-2020 10:00:00 8.2 C 83 % 5.49 C
1562 28-03-2020 10:05:00 8.6 C 81 % 5.53 C
1563 28-03-2020 10:10:00 8.9 C 79 % 5.46 C
1564 28-03-2020 10:15:00 9.2 C 78 % 5.57 C
1565 28-03-2020 10:20:00 9.4 C 75 % 5.2 C
1566 28-03-2020 10:25:00 9.8 C 74 % 5.39 C
1567 28-03-2020 10:30:00 10.1 C 73 % 5.49 C
1568 28-03-2020 10:35:00 10.3 C 72 % 5.48 C
1569 28-03-2020 10:40:00 10.6 C 70 % 5.36 C
1570 28-03-2020 10:45:00 10.8 C 69 % 5.35 C
1571 28-03-2020 10:50:00 11.1 C 69 % 5.64 C
1572 28-03-2020 10:55:00 11.3 C 69 % 5.83 C
1573 28-03-2020 11:00:00 11.7 C 68 % 6 C
1574 28-03-2020 11:05:00 12.1 C 66 % 5.95 C
1575 28-03-2020 11:10:00 12.3 C 62 % 5.24 C
Sensor: Nr:Datum:Temp:Feuchte:Taupunkt:
Aussen-T/F 1576 28-03-2020 11:15:00 12.7 C 64 % 6.07 C
1577 28-03-2020 11:20:00 13.1 C 62 % 5.99 C
1578 28-03-2020 11:25:00 13.3 C 60 % 5.71 C
1579 28-03-2020 11:30:00 13.6 C 59 % 5.75 C
1580 28-03-2020 11:35:00 13.8 C 58 % 5.69 C
1581 28-03-2020 11:40:00 14.2 C 56 % 5.56 C
1582 28-03-2020 11:45:00 14.4 C 56 % 5.74 C
1583 28-03-2020 11:50:00 14.6 C 55 % 5.67 C
1584 28-03-2020 11:55:00 14.8 C 53 % 5.32 C
1585 28-03-2020 12:00:00 14.9 C 54 % 5.69 C
1586 28-03-2020 12:05:00 15.2 C 52 % 5.42 C
1587 28-03-2020 12:10:00 15.3 C 52 % 5.51 C
1588 28-03-2020 12:15:00 15.6 C 50 % 5.23 C
1589 28-03-2020 12:20:00 15.8 C 49 % 5.12 C
1590 28-03-2020 12:25:00 16.1 C 48 % 5.1 C
1591 28-03-2020 12:30:00 16.2 C 48 % 5.19 C
1592 28-03-2020 12:35:00 16.4 C 49 % 5.67 C
1593 28-03-2020 12:40:00 16.5 C 49 % 5.76 C
1594 28-03-2020 12:45:00 16.7 C 47 % 5.34 C
1595 28-03-2020 12:50:00 16.8 C 47 % 5.44 C
1596 28-03-2020 12:55:00 16.9 C 47 % 5.53 C
1597 28-03-2020 13:00:00 17 C 45 % 4.99 C
1598 28-03-2020 13:05:00 17.2 C 44 % 4.85 C
1599 28-03-2020 13:10:00 17.2 C 43 % 4.53 C
1600 28-03-2020 13:15:00 17.3 C 45 % 5.27 C
Sensor: Nr:Datum:Temp:Feuchte:Taupunkt:
Aussen-T/F 1601 28-03-2020 13:20:00 17.5 C 44 % 5.13 C
1602 28-03-2020 13:25:00 17.7 C 43 % 4.98 C
1603 28-03-2020 13:30:00 17.8 C 44 % 5.4 C
1604 28-03-2020 13:35:00 17.9 C 43 % 5.16 C
1605 28-03-2020 13:40:00 18 C 43 % 5.25 C
1606 28-03-2020 13:45:00 18.1 C 43 % 5.34 C
1607 28-03-2020 13:50:00 18.2 C 44 % 5.76 C
1608 28-03-2020 13:55:00 18.1 C 44 % 5.67 C
1609 28-03-2020 14:00:00 18.1 C 44 % 5.67 C
1610 28-03-2020 14:05:00 18.2 C 44 % 5.76 C
1611 28-03-2020 14:10:00 18.2 C 42 % 5.09 C
1612 28-03-2020 14:15:00 18.2 C 42 % 5.09 C
1613 28-03-2020 14:20:00 18.2 C 43 % 5.43 C
1614 28-03-2020 14:25:00 18.2 C 43 % 5.43 C
1615 28-03-2020 14:30:00 18.2 C 43 % 5.43 C
1616 28-03-2020 14:35:00 18.3 C 43 % 5.52 C
1617 28-03-2020 14:40:00 18.3 C 42 % 5.18 C
1618 28-03-2020 14:45:00 18.3 C 43 % 5.52 C
1619 28-03-2020 14:50:00 18.4 C 41 % 4.92 C
1620 28-03-2020 14:55:00 18.4 C 41 % 4.92 C
1621 28-03-2020 15:00:00 18.4 C 40 % 4.57 C
1622 28-03-2020 15:05:00 18.6 C 39 % 4.39 C
1623 28-03-2020 15:10:00 18.5 C 37 % 3.55 C
1624 28-03-2020 15:15:00 18.4 C 37 % 3.46 C
1625 28-03-2020 15:20:00 18.2 C 40 % 4.39 C
Sensor: Nr:Datum:Temp:Feuchte:Taupunkt:
Aussen-T/F 1626 28-03-2020 15:25:00 18 C 42 % 4.91 C
1627 28-03-2020 15:30:00 18.1 C 40 % 4.3 C
1628 28-03-2020 15:35:00 18.1 C 42 % 5 C
1629 28-03-2020 15:40:00 18.3 C 42 % 5.18 C
1630 28-03-2020 15:45:00 18.5 C 40 % 4.66 C
1631 28-03-2020 15:50:00 18.4 C 41 % 4.92 C
1632 28-03-2020 15:55:00 18.4 C 42 % 5.27 C
1633 28-03-2020 16:00:00 18.3 C 41 % 4.83 C
1634 28-03-2020 16:05:00 18.2 C 41 % 4.75 C
1635 28-03-2020 16:10:00 18.3 C 40 % 4.48 C
1636 28-03-2020 16:15:00 18.4 C 40 % 4.57 C
1637 28-03-2020 16:20:00 18.3 C 39 % 4.12 C
1638 28-03-2020 16:25:00 18.2 C 38 % 3.66 C
1639 28-03-2020 16:30:00 18.1 C 38 % 3.57 C
1640 28-03-2020 16:35:00 17.9 C 37 % 3.02 C
1641 28-03-2020 16:40:00 17.8 C 38 % 3.31 C
1642 28-03-2020 16:45:00 17.8 C 36 % 2.55 C
1643 28-03-2020 16:50:00 17.7 C 36 % 2.46 C
1644 28-03-2020 16:55:00 17.6 C 36 % 2.37 C
1645 28-03-2020 17:00:00 17.6 C 36 % 2.37 C
1646 28-03-2020 17:05:00 17.5 C 35 % 1.89 C
1647 28-03-2020 17:10:00 17.4 C 35 % 1.8 C
1648 28-03-2020 17:15:00 17.3 C 35 % 1.71 C
1649 28-03-2020 17:20:00 17 C 35 % 1.45 C
1650 28-03-2020 17:25:00 16.9 C 35 % 1.36 C
Sensor: Nr:Datum:Temp:Feuchte:Taupunkt:
Aussen-T/F 1651 28-03-2020 17:30:00 16.8 C 35 % 1.27 C
1652 28-03-2020 17:35:00 16.6 C 35 % 1.09 C
1653 28-03-2020 17:40:00 16.4 C 35 % 0.92 C
1654 28-03-2020 17:45:00 16.3 C 36 % 1.22 C
1655 28-03-2020 17:50:00 16.2 C 36 % 1.13 C
1656 28-03-2020 17:55:00 15.9 C 35 % 0.48 C
1657 28-03-2020 18:00:00 15.7 C 36 % 0.69 C
1658 28-03-2020 18:05:00 15.5 C 37 % 0.89 C
1659 28-03-2020 18:10:00 15.3 C 36 % 0.34 C
1660 28-03-2020 18:15:00 15.1 C 38 % 0.9 C
1661 28-03-2020 18:20:00 14.9 C 39 % 1.09 C
1662 28-03-2020 18:25:00 14.7 C 40 % 1.26 C
1663 28-03-2020 18:30:00 14.4 C 41 % 1.33 C
1664 28-03-2020 18:35:00 14.2 C 41 % 1.15 C
1665 28-03-2020 18:40:00 13.9 C 42 % 1.22 C
1666 28-03-2020 18:45:00 13.7 C 42 % 1.04 C
1667 28-03-2020 18:50:00 13.6 C 43 % 1.27 C
1668 28-03-2020 18:55:00 13.3 C 44 % 1.32 C
1669 28-03-2020 19:00:00 13.2 C 44 % 1.23 C
1670 28-03-2020 19:05:00 13 C 45 % 1.36 C
1671 28-03-2020 19:10:00 12.8 C 46 % 1.48 C
1672 28-03-2020 19:15:00 12.7 C 46 % 1.39 C
1673 28-03-2020 19:20:00 12.5 C 46 % 1.21 C
1674 28-03-2020 19:25:00 12.4 C 47 % 1.42 C
1675 28-03-2020 19:30:00 12.2 C 47 % 1.24 C
Sensor: Nr:Datum:Temp:Feuchte:Taupunkt:
Aussen-T/F 1676 28-03-2020 19:35:00 12.1 C 48 % 1.44 C
1677 28-03-2020 19:40:00 12 C 47 % 1.05 C
1678 28-03-2020 19:45:00 11.9 C 47 % 0.96 C
1679 28-03-2020 19:50:00 11.8 C 48 % 1.16 C
1680 28-03-2020 19:55:00 11.7 C 48 % 1.07 C
1681 28-03-2020 20:00:00 11.6 C 49 % 1.26 C
1682 28-03-2020 20:05:00 11.4 C 49 % 1.08 C
1683 28-03-2020 20:10:00 11.4 C 49 % 1.08 C
1684 28-03-2020 20:15:00 11.3 C 50 % 1.27 C
1685 28-03-2020 20:20:00 11.2 C 50 % 1.18 C
1686 28-03-2020 20:25:00 11.2 C 51 % 1.45 C
1687 28-03-2020 20:30:00 11.1 C 51 % 1.36 C
1688 28-03-2020 20:35:00 10.9 C 52 % 1.44 C
1689 28-03-2020 20:40:00 10.7 C 53 % 1.52 C
1690 28-03-2020 20:45:00 10.4 C 54 % 1.51 C
1691 28-03-2020 20:50:00 10.2 C 55 % 1.58 C
1692 28-03-2020 20:55:00 9.9 C 56 % 1.55 C
1693 28-03-2020 21:00:00 9.8 C 57 % 1.7 C
1694 28-03-2020 21:05:00 9.8 C 56 % 1.45 C
1695 28-03-2020 21:10:00 9.8 C 57 % 1.7 C
1696 28-03-2020 21:15:00 9.8 C 57 % 1.7 C
1697 28-03-2020 21:20:00 9.8 C 58 % 1.94 C
1698 28-03-2020 21:25:00 9.6 C 58 % 1.75 C
1699 28-03-2020 21:30:00 9.3 C 58 % 1.47 C
1700 28-03-2020 21:35:00 9.2 C 59 % 1.62 C
Sensor: Nr:Datum:Temp:Feuchte:Taupunkt:
Aussen-T/F 1701 28-03-2020 21:40:00 9.2 C 59 % 1.62 C
1702 28-03-2020 21:45:00 9.1 C 60 % 1.76 C
1703 28-03-2020 21:50:00 8.8 C 60 % 1.48 C
1704 28-03-2020 21:55:00 8.7 C 60 % 1.38 C
1705 28-03-2020 22:00:00 8.9 C 60 % 1.57 C
1706 28-03-2020 22:05:00 9.1 C 59 % 1.52 C
1707 28-03-2020 22:10:00 9.2 C 58 % 1.38 C
1708 28-03-2020 22:15:00 9.2 C 59 % 1.62 C
1709 28-03-2020 22:20:00 9.3 C 59 % 1.71 C
1710 28-03-2020 22:25:00 9.2 C 61 % 2.08 C
1711 28-03-2020 22:30:00 9.2 C 63 % 2.53 C
1712 28-03-2020 22:35:00 9.1 C 63 % 2.44 C
1713 28-03-2020 22:40:00 9 C 63 % 2.35 C
1714 28-03-2020 22:45:00 8.9 C 64 % 2.47 C
1715 28-03-2020 22:50:00 8.7 C 65 % 2.5 C
1716 28-03-2020 22:55:00 8.6 C 66 % 2.62 C
1717 28-03-2020 23:00:00 8.4 C 67 % 2.64 C
1718 28-03-2020 23:05:00 8.4 C 68 % 2.85 C
1719 28-03-2020 23:10:00 8.3 C 68 % 2.75 C
1720 28-03-2020 23:15:00 8.3 C 69 % 2.96 C
1721 28-03-2020 23:20:00 8.2 C 70 % 3.06 C
1722 28-03-2020 23:25:00 8.1 C 71 % 3.17 C
1723 28-03-2020 23:30:00 8.1 C 71 % 3.17 C
1724 28-03-2020 23:35:00 7.9 C 71 % 2.98 C
1725 28-03-2020 23:40:00 7.8 C 72 % 3.08 C
Sensor: Nr:Datum:Temp:Feuchte:Taupunkt:
Aussen-T/F 1726 28-03-2020 23:45:00 7.7 C 72 % 2.98 C
1727 28-03-2020 23:50:00 7.7 C 73 % 3.18 C
1728 28-03-2020 23:55:00 7.6 C 73 % 3.08 C
1729 29-03-2020 00:00:00 7.4 C 73 % 2.89 C
1730 29-03-2020 00:05:00 7.3 C 74 % 2.98 C
1731 29-03-2020 00:10:00 7.2 C 74 % 2.89 C
1732 29-03-2020 00:15:00 7.2 C 74 % 2.89 C
1733 29-03-2020 00:20:00 7.1 C 74 % 2.79 C
1734 29-03-2020 00:25:00 7.1 C 74 % 2.79 C
1735 29-03-2020 00:30:00 7.1 C 74 % 2.79 C
1736 29-03-2020 00:35:00 7.1 C 74 % 2.79 C
1737 29-03-2020 00:40:00 7.1 C 74 % 2.79 C
1738 29-03-2020 00:45:00 7.1 C 74 % 2.79 C
1739 29-03-2020 00:50:00 7 C 73 % 2.5 C
1740 29-03-2020 00:55:00 7 C 73 % 2.5 C
1741 29-03-2020 01:00:00 6.9 C 73 % 2.4 C
1742 29-03-2020 01:05:00 6.8 C 73 % 2.31 C
1743 29-03-2020 01:10:00 6.8 C 73 % 2.31 C
1744 29-03-2020 01:15:00 6.7 C 73 % 2.21 C
1745 29-03-2020 01:20:00 6.7 C 73 % 2.21 C
1746 29-03-2020 01:25:00 6.6 C 72 % 1.92 C
1747 29-03-2020 01:30:00 6.6 C 72 % 1.92 C
1748 29-03-2020 01:35:00 6.5 C 72 % 1.83 C
1749 29-03-2020 01:40:00 6.4 C 72 % 1.73 C
1750 29-03-2020 01:45:00 6.4 C 71 % 1.54 C
Sensor: Nr:Datum:Temp:Feuchte:Taupunkt:
Aussen-T/F 1751 29-03-2020 01:50:00 6.4 C 71 % 1.54 C
1752 29-03-2020 01:55:00 6.3 C 70 % 1.24 C
1753 29-03-2020 02:00:00 6.3 C 70 % 1.24 C
1754 29-03-2020 02:05:00 6.2 C 70 % 1.15 C
1755 29-03-2020 02:10:00 6.2 C 69 % 0.95 C
1756 29-03-2020 02:15:00 6.1 C 70 % 1.05 C
1757 29-03-2020 02:20:00 5.9 C 70 % 0.86 C
1758 29-03-2020 02:25:00 5.8 C 70 % 0.76 C
1759 29-03-2020 02:30:00 5.7 C 71 % 0.86 C
1760 29-03-2020 02:35:00 5.6 C 71 % 0.77 C
1761 29-03-2020 02:40:00 5.4 C 72 % 0.77 C
1762 29-03-2020 02:45:00 5.3 C 72 % 0.67 C
1763 29-03-2020 02:50:00 5.2 C 71 % 0.38 C
1764 29-03-2020 02:55:00 5.2 C 70 % 0.19 C
1765 29-03-2020 04:00:00 5.2 C 70 % 0.19 C
1766 29-03-2020 04:05:00 5.1 C 70 % 0.09 C
1767 29-03-2020 04:10:00 5 C 70 % 0 C
1768 29-03-2020 04:15:00 4.9 C 69 % -0.3 C
1769 29-03-2020 04:20:00 4.8 C 69 % -0.39 C
1770 29-03-2020 04:25:00 4.8 C 69 % -0.39 C
1771 29-03-2020 04:30:00 4.8 C 69 % -0.39 C
1772 29-03-2020 04:35:00 4.8 C 70 % -0.2 C
1773 29-03-2020 04:40:00 4.8 C 70 % -0.2 C
1774 29-03-2020 04:45:00 4.8 C 70 % -0.2 C
1775 29-03-2020 04:50:00 4.8 C 71 % 0 C
Sensor: Nr:Datum:Temp:Feuchte:Taupunkt:
Aussen-T/F 1776 29-03-2020 04:55:00 4.8 C 71 % 0 C
1777 29-03-2020 05:00:00 4.8 C 72 % 0.19 C
1778 29-03-2020 05:05:00 4.8 C 72 % 0.19 C
1779 29-03-2020 05:10:00 4.8 C 73 % 0.38 C
1780 29-03-2020 05:15:00 4.8 C 72 % 0.19 C
1781 29-03-2020 05:20:00 4.7 C 71 % -0.1 C
1782 29-03-2020 05:25:00 4.7 C 71 % -0.1 C
1783 29-03-2020 05:30:00 4.6 C 70 % -0.39 C
1784 29-03-2020 05:35:00 4.5 C 70 % -0.48 C
1785 29-03-2020 05:40:00 4.4 C 70 % -0.58 C
1786 29-03-2020 05:45:00 4.3 C 69 % -0.87 C
1787 29-03-2020 05:50:00 4.3 C 70 % -0.68 C
1788 29-03-2020 05:55:00 4.2 C 70 % -0.77 C
1789 29-03-2020 06:00:00 4.1 C 70 % -0.87 C
1790 29-03-2020 06:05:00 4 C 70 % -0.96 C
1791 29-03-2020 06:10:00 3.9 C 70 % -1.06 C
1792 29-03-2020 06:15:00 3.8 C 70 % -1.16 C
1793 29-03-2020 06:20:00 3.8 C 71 % -0.96 C
1794 29-03-2020 06:25:00 3.7 C 71 % -1.06 C
1795 29-03-2020 06:30:00 3.7 C 72 % -0.87 C
1796 29-03-2020 06:35:00 3.7 C 72 % -0.87 C
1797 29-03-2020 06:40:00 3.7 C 73 % -0.68 C
1798 29-03-2020 06:45:00 3.7 C 73 % -0.68 C
1799 29-03-2020 06:50:00 3.7 C 74 % -0.49 C
1800 29-03-2020 06:55:00 3.8 C 75 % -0.21 C
Sensor: Nr:Datum:Temp:Feuchte:Taupunkt:
Aussen-T/F 1801 29-03-2020 07:00:00 3.8 C 75 % -0.21 C
1802 29-03-2020 07:05:00 3.9 C 76 % 0.07 C
1803 29-03-2020 07:10:00 3.9 C 76 % 0.07 C
1804 29-03-2020 07:15:00 4 C 77 % 0.34 C
1805 29-03-2020 07:20:00 4 C 77 % 0.34 C
1806 29-03-2020 07:25:00 4 C 77 % 0.34 C
1807 29-03-2020 07:30:00 4.1 C 77 % 0.44 C
1808 29-03-2020 07:35:00 4.1 C 77 % 0.44 C
1809 29-03-2020 07:40:00 4.1 C 77 % 0.44 C
1810 29-03-2020 07:45:00 4.2 C 77 % 0.54 C
1811 29-03-2020 07:50:00 4.2 C 77 % 0.54 C
1812 29-03-2020 07:55:00 4.2 C 77 % 0.54 C
1813 29-03-2020 08:00:00 4.2 C 77 % 0.54 C
1814 29-03-2020 08:05:00 4.2 C 77 % 0.54 C
1815 29-03-2020 08:10:00 4.2 C 77 % 0.54 C
1816 29-03-2020 08:15:00 4.3 C 77 % 0.63 C
1817 29-03-2020 08:20:00 4.3 C 77 % 0.63 C
1818 29-03-2020 08:25:00 4.3 C 77 % 0.63 C
1819 29-03-2020 08:30:00 4.4 C 76 % 0.55 C
1820 29-03-2020 08:35:00 4.4 C 76 % 0.55 C
1821 29-03-2020 08:40:00 4.5 C 76 % 0.65 C
1822 29-03-2020 08:45:00 4.6 C 75 % 0.56 C
1823 29-03-2020 08:50:00 4.5 C 75 % 0.46 C
1824 29-03-2020 08:55:00 4.5 C 75 % 0.46 C
1825 29-03-2020 09:00:00 4.5 C 76 % 0.65 C
Sensor: Nr:Datum:Temp:Feuchte:Taupunkt:
Aussen-T/F 1826 29-03-2020 09:05:00 4.5 C 75 % 0.46 C
1827 29-03-2020 09:10:00 4.5 C 75 % 0.46 C
1828 29-03-2020 09:15:00 4.5 C 75 % 0.46 C
1829 29-03-2020 09:20:00 4.5 C 75 % 0.46 C
1830 29-03-2020 09:25:00 4.5 C 75 % 0.46 C
1831 29-03-2020 09:30:00 4.6 C 75 % 0.56 C
1832 29-03-2020 09:35:00 4.7 C 75 % 0.66 C
1833 29-03-2020 09:40:00 4.7 C 74 % 0.47 C
1834 29-03-2020 09:45:00 4.8 C 74 % 0.57 C
1835 29-03-2020 09:50:00 4.9 C 73 % 0.48 C
1836 29-03-2020 09:55:00 5 C 73 % 0.57 C
1837 29-03-2020 10:00:00 5.1 C 73 % 0.67 C
1838 29-03-2020 10:05:00 5.2 C 73 % 0.77 C
1839 29-03-2020 10:10:00 5.3 C 72 % 0.67 C
1840 29-03-2020 10:15:00 5.3 C 72 % 0.67 C
1841 29-03-2020 10:20:00 5.4 C 71 % 0.58 C
1842 29-03-2020 10:25:00 5.6 C 70 % 0.57 C
1843 29-03-2020 10:30:00 5.6 C 70 % 0.57 C
1844 29-03-2020 10:35:00 5.8 C 69 % 0.56 C
1845 29-03-2020 10:40:00 6 C 69 % 0.76 C
1846 29-03-2020 10:45:00 6.1 C 66 % 0.24 C
1847 29-03-2020 10:50:00 6.1 C 65 % 0.03 C
1848 29-03-2020 10:55:00 6.2 C 66 % 0.33 C
1849 29-03-2020 11:00:00 6.4 C 62 % -0.34 C
1850 29-03-2020 11:05:00 6.5 C 61 % -0.46 C
Sensor: Nr:Datum:Temp:Feuchte:Taupunkt:
Aussen-T/F 1851 29-03-2020 11:10:00 6.6 C 60 % -0.6 C
1852 29-03-2020 11:15:00 6.5 C 61 % -0.46 C
1853 29-03-2020 11:20:00 6.4 C 61 % -0.56 C
1854 29-03-2020 11:25:00 6.4 C 60 % -0.78 C
1855 29-03-2020 11:30:00 6.3 C 60 % -0.88 C
1856 29-03-2020 11:35:00 6.4 C 61 % -0.56 C
1857 29-03-2020 11:40:00 6.4 C 61 % -0.56 C
1858 29-03-2020 11:45:00 6.5 C 61 % -0.46 C
1859 29-03-2020 11:50:00 6.4 C 62 % -0.34 C
1860 29-03-2020 11:55:00 6.5 C 62 % -0.24 C
1861 29-03-2020 12:00:00 6.4 C 61 % -0.56 C
1862 29-03-2020 12:05:00 6.3 C 64 % 0 C
1863 29-03-2020 12:10:00 6.1 C 66 % 0.24 C
1864 29-03-2020 12:15:00 5.9 C 65 % -0.16 C
1865 29-03-2020 12:20:00 5.9 C 65 % -0.16 C
1866 29-03-2020 12:25:00 5.9 C 66 % 0.05 C
1867 29-03-2020 12:30:00 5.9 C 65 % -0.16 C
1868 29-03-2020 12:35:00 5.9 C 66 % 0.05 C
1869 29-03-2020 12:40:00 5.9 C 65 % -0.16 C
1870 29-03-2020 12:45:00 6 C 65 % -0.07 C
1871 29-03-2020 12:50:00 6.1 C 64 % -0.19 C
1872 29-03-2020 12:55:00 6.2 C 63 % -0.31 C
1873 29-03-2020 13:00:00 6.3 C 62 % -0.43 C
1874 29-03-2020 13:05:00 6.3 C 61 % -0.65 C
1875 29-03-2020 13:10:00 6.3 C 60 % -0.88 C
Sensor: Nr:Datum:Temp:Feuchte:Taupunkt:
Aussen-T/F 1876 29-03-2020 13:15:00 6.3 C 59 % -1.11 C
1877 29-03-2020 13:20:00 6.4 C 59 % -1.01 C
1878 29-03-2020 13:25:00 6.5 C 58 % -1.15 C
1879 29-03-2020 13:30:00 6.6 C 57 % -1.3 C
1880 29-03-2020 13:35:00 6.7 C 56 % -1.44 C
1881 29-03-2020 13:40:00 6.8 C 56 % -1.35 C
1882 29-03-2020 13:45:00 7.1 C 54 % -1.56 C
1883 29-03-2020 13:50:00 7.3 C 55 % -1.13 C
1884 29-03-2020 13:55:00 7.6 C 53 % -1.35 C
1885 29-03-2020 14:00:00 7.5 C 53 % -1.44 C
1886 29-03-2020 14:05:00 7.3 C 53 % -1.63 C
1887 29-03-2020 14:10:00 7.3 C 53 % -1.63 C
1888 29-03-2020 14:15:00 7.3 C 53 % -1.63 C
1889 29-03-2020 14:20:00 7.2 C 56 % -0.98 C
1890 29-03-2020 14:25:00 6.8 C 58 % -0.87 C
1891 29-03-2020 14:30:00 6.6 C 59 % -0.83 C
1892 29-03-2020 14:35:00 6.6 C 59 % -0.83 C
1893 29-03-2020 14:40:00 6.5 C 59 % -0.92 C
1894 29-03-2020 14:45:00 6.5 C 59 % -0.92 C
1895 29-03-2020 14:50:00 6.6 C 60 % -0.6 C
1896 29-03-2020 14:55:00 6.6 C 60 % -0.6 C
1897 29-03-2020 15:00:00 6.7 C 61 % -0.28 C
1898 29-03-2020 15:05:00 6.8 C 61 % -0.18 C
1899 29-03-2020 15:10:00 6.9 C 57 % -1.01 C
1900 29-03-2020 15:15:00 6.9 C 56 % -1.26 C
Sensor: Nr:Datum:Temp:Feuchte:Taupunkt:
Aussen-T/F 1901 29-03-2020 15:20:00 7 C 56 % -1.16 C
1902 29-03-2020 15:25:00 7.1 C 56 % -1.07 C
1903 29-03-2020 15:30:00 7.2 C 56 % -0.98 C
1904 29-03-2020 15:35:00 7.3 C 57 % -0.64 C
1905 29-03-2020 15:40:00 7.4 C 56 % -0.79 C
1906 29-03-2020 15:45:00 7.3 C 58 % -0.4 C
1907 29-03-2020 15:50:00 7.3 C 58 % -0.4 C
1908 29-03-2020 15:55:00 7.3 C 57 % -0.64 C
1909 29-03-2020 16:00:00 7.3 C 57 % -0.64 C
1910 29-03-2020 16:05:00 7.2 C 56 % -0.98 C
1911 29-03-2020 16:10:00 7.2 C 55 % -1.22 C
1912 29-03-2020 16:15:00 7 C 55 % -1.41 C
1913 29-03-2020 16:20:00 6.9 C 55 % -1.5 C
1914 29-03-2020 16:25:00 6.8 C 55 % -1.59 C
1915 29-03-2020 16:30:00 6.8 C 58 % -0.87 C
1916 29-03-2020 16:35:00 6.7 C 59 % -0.73 C
1917 29-03-2020 16:40:00 6.7 C 60 % -0.5 C
1918 29-03-2020 16:45:00 6.7 C 60 % -0.5 C
1919 29-03-2020 16:50:00 6.8 C 58 % -0.87 C
1920 29-03-2020 16:55:00 6.8 C 58 % -0.87 C
1921 29-03-2020 17:00:00 6.8 C 59 % -0.64 C
1922 29-03-2020 17:05:00 6.9 C 59 % -0.54 C
1923 29-03-2020 17:10:00 7.1 C 59 % -0.36 C
1924 29-03-2020 17:15:00 6.9 C 59 % -0.54 C
1925 29-03-2020 17:20:00 6.9 C 61 % -0.09 C
Sensor: Nr:Datum:Temp:Feuchte:Taupunkt:
Aussen-T/F 1926 29-03-2020 17:25:00 6.9 C 63 % 0.36 C
1927 29-03-2020 17:30:00 6.8 C 62 % 0.04 C
1928 29-03-2020 17:35:00 6.9 C 63 % 0.36 C
1929 29-03-2020 17:40:00 7 C 63 % 0.45 C
1930 29-03-2020 17:45:00 6.9 C 63 % 0.36 C
1931 29-03-2020 17:50:00 6.8 C 64 % 0.48 C
1932 29-03-2020 17:55:00 6.8 C 65 % 0.69 C
1933 29-03-2020 18:00:00 6.9 C 65 % 0.79 C
1934 29-03-2020 18:05:00 7 C 65 % 0.88 C
1935 29-03-2020 18:10:00 6.9 C 63 % 0.36 C
1936 29-03-2020 18:15:00 6.7 C 63 % 0.17 C
1937 29-03-2020 18:20:00 6.6 C 64 % 0.29 C
1938 29-03-2020 18:25:00 6.4 C 65 % 0.31 C
1939 29-03-2020 18:30:00 6.2 C 68 % 0.75 C
1940 29-03-2020 18:35:00 5.8 C 72 % 1.15 C
1941 29-03-2020 18:40:00 5.4 C 75 % 1.33 C
1942 29-03-2020 18:45:00 5.1 C 78 % 1.59 C
1943 29-03-2020 18:50:00 4.9 C 79 % 1.57 C
1944 29-03-2020 18:55:00 4.9 C 79 % 1.57 C
1945 29-03-2020 19:00:00 4.9 C 79 % 1.57 C
1946 29-03-2020 19:05:00 4.8 C 80 % 1.65 C
1947 29-03-2020 19:10:00 4.6 C 82 % 1.8 C
1948 29-03-2020 19:15:00 4.4 C 83 % 1.77 C
1949 29-03-2020 19:20:00 4.4 C 83 % 1.77 C
1950 29-03-2020 19:25:00 4.3 C 84 % 1.84 C
Sensor: Nr:Datum:Temp:Feuchte:Taupunkt:
Aussen-T/F 1951 29-03-2020 19:30:00 4.3 C 84 % 1.84 C
1952 29-03-2020 19:35:00 4.3 C 85 % 2.01 C
1953 29-03-2020 19:40:00 4.2 C 85 % 1.91 C
1954 29-03-2020 19:45:00 4.1 C 85 % 1.81 C
1955 29-03-2020 19:50:00 4 C 86 % 1.88 C
1956 29-03-2020 19:55:00 3.9 C 86 % 1.78 C
1957 29-03-2020 20:00:00 3.9 C 86 % 1.78 C
1958 29-03-2020 20:05:00 3.8 C 87 % 1.84 C
1959 29-03-2020 20:10:00 3.8 C 87 % 1.84 C
1960 29-03-2020 20:15:00 3.8 C 87 % 1.84 C
1961 29-03-2020 20:20:00 3.8 C 87 % 1.84 C
1962 29-03-2020 20:25:00 3.8 C 87 % 1.84 C
1963 29-03-2020 20:30:00 3.8 C 87 % 1.84 C
1964 29-03-2020 20:35:00 3.8 C 87 % 1.84 C
1965 29-03-2020 20:40:00 3.9 C 86 % 1.78 C
1966 29-03-2020 20:45:00 3.9 C 85 % 1.61 C
1967 29-03-2020 20:50:00 4.1 C 84 % 1.65 C
1968 29-03-2020 20:55:00 4.2 C 83 % 1.58 C
1969 29-03-2020 21:00:00 4.2 C 82 % 1.41 C
1970 29-03-2020 21:05:00 4.2 C 81 % 1.24 C
1971 29-03-2020 21:10:00 4.3 C 80 % 1.16 C
1972 29-03-2020 21:15:00 4.3 C 79 % 0.99 C
1973 29-03-2020 21:20:00 4.3 C 78 % 0.81 C
1974 29-03-2020 21:25:00 4.4 C 78 % 0.91 C
1975 29-03-2020 21:30:00 4.4 C 77 % 0.73 C
Sensor: Nr:Datum:Temp:Feuchte:Taupunkt:
Aussen-T/F 1976 29-03-2020 21:35:00 4.4 C 77 % 0.73 C
1977 29-03-2020 21:40:00 4.4 C 76 % 0.55 C
1978 29-03-2020 21:45:00 4.4 C 75 % 0.37 C
1979 29-03-2020 21:50:00 4.4 C 75 % 0.37 C
1980 29-03-2020 21:55:00 4.4 C 76 % 0.55 C
1981 29-03-2020 22:00:00 4.4 C 75 % 0.37 C
1982 29-03-2020 22:05:00 4.3 C 75 % 0.27 C
1983 29-03-2020 22:10:00 4.3 C 75 % 0.27 C
1984 29-03-2020 22:15:00 4.3 C 75 % 0.27 C
1985 29-03-2020 22:20:00 4.3 C 74 % 0.09 C
1986 29-03-2020 22:25:00 4.3 C 74 % 0.09 C
1987 29-03-2020 22:30:00 4.3 C 73 % -0.1 C
1988 29-03-2020 22:35:00 4.2 C 73 % -0.2 C
1989 29-03-2020 22:40:00 4.2 C 73 % -0.2 C
1990 29-03-2020 22:45:00 4.2 C 72 % -0.39 C
1991 29-03-2020 22:50:00 4.2 C 73 % -0.2 C
1992 29-03-2020 22:55:00 4.2 C 72 % -0.39 C
1993 29-03-2020 23:00:00 4.2 C 71 % -0.58 C
1994 29-03-2020 23:05:00 4.2 C 71 % -0.58 C
1995 29-03-2020 23:10:00 4.2 C 71 % -0.58 C
1996 29-03-2020 23:15:00 4.1 C 70 % -0.87 C
1997 29-03-2020 23:20:00 4.1 C 69 % -1.06 C
1998 29-03-2020 23:25:00 4.1 C 70 % -0.87 C
1999 29-03-2020 23:30:00 4.1 C 69 % -1.06 C
2000 29-03-2020 23:35:00 4 C 68 % -1.36 C
Sensor: Nr:Datum:Temp:Feuchte:Taupunkt:
Aussen-T/F 2001 29-03-2020 23:40:00 3.9 C 67 % -1.65 C
2002 29-03-2020 23:45:00 3.9 C 67 % -1.65 C
2003 29-03-2020 23:50:00 3.8 C 67 % -1.75 C
2004 29-03-2020 23:55:00 3.7 C 67 % -1.85 C

Legende:
   Min
   Max


Maximal/Minimal-Werte vom 23.03.2020 - 29.03.2020

Sensor Min Max Avg
Temp
(Aussen-T/F)
-3.5 °C
24-03-2020  06:30:00
18.6 °C
28-03-2020  15:05:00
5.38 °C
Feuchte
(Aussen-T/F)
22 %
24-03-2020  17:20:00
94 %
28-03-2020  07:15:00
60.66 %
Taupunkt
(Aussen-T/F)
-11.24 C
23-03-2020  14:00:00
6.07 C
28-03-2020  11:15:00
-2.49 C

Die Daten stammen von einer Davis Vantage Pro 2 Wetter-Station und werden unter Linux mit der Software wview2wettercgi und aufbereitet. Alle Angaben erfolgen ohne Gewähr für ihre Vollständigkeit oder Richtigkeit.
Kontakt: Rainer Krienke krienke@uni-koblenz.de . Meine Webseiten an der Uni Koblenz oder privat.
Version: $Revision: 0.78 $